GFSMA_prec_pwat_000.txt.gz
Precipitable_Water
1.86 1.80 1.82 1.79 1.69 1.66 1.62 1.57 1.55 1.52 1.50 1.48 1.45 1.31 1.17 1.11 1.04 1.09 1.19 1.45 1.68 1.88 1.89 1.95 2.00 2.12 1.96 1.63 1.63 1.58 1.47 1.41 1.40 1.34 1.42 1.75 1.76 1.59 1.48 1.48 1.57 1.70 1.70
1.92 1.83 1.76 1.67 1.63 1.64 1.58 1.52 1.49 1.47 1.46 1.40 1.25 1.19 1.06 0.97 0.98 1.04 1.08 1.18 1.40 1.65 1.80 1.93 1.95 2.05 2.09 2.04 1.73 1.57 1.65 1.62 1.57 1.51 1.45 1.53 1.55 1.56 1.48 1.45 1.49 1.57 1.62
1.82 1.74 1.75 1.65 1.66 1.67 1.56 1.52 1.51 1.45 1.30 1.21 1.10 1.07 1.11 1.10 1.05 1.03 1.05 1.07 1.22 1.45 1.60 1.75 1.86 1.88 2.04 2.09 2.05 1.96 1.61 1.56 1.59 1.66 1.56 1.47 1.49 1.68 1.67 1.61 1.56 1.57 1.63
1.79 1.73 1.69 1.64 1.69 1.62 1.57 1.50 1.41 1.21 1.15 1.13 1.05 1.09 1.11 1.09 1.10 1.09 1.07 1.04 1.02 1.09 1.45 1.58 1.72 1.78 1.81 1.96 2.09 2.07 1.98 1.91 1.74 1.65 1.59 1.60 1.55 1.51 1.58 1.62 1.70 1.71 1.67
1.71 1.67 1.62 1.63 1.70 1.66 1.71 1.58 1.39 1.11 1.00 0.99 1.01 1.03 1.14 1.11 1.09 1.13 1.11 1.16 1.20 1.14 1.08 1.37 1.46 1.66 1.82 1.83 1.94 2.06 2.05 2.04 1.98 1.88 1.70 1.63 1.58 1.62 1.67 1.63 1.58 1.60 1.62
1.71 1.71 1.65 1.56 1.55 1.56 1.47 1.38 1.11 1.06 1.02 0.98 0.93 0.97 1.11 1.14 1.16 1.16 1.11 1.06 1.07 1.21 1.29 1.26 1.27 1.44 1.63 1.85 1.90 1.95 2.03 2.02 1.99 2.02 1.97 1.77 1.67 1.64 1.62 1.65 1.64 1.61 1.58
1.62 1.59 1.51 1.48 1.47 1.38 1.15 1.07 0.97 0.98 0.90 1.06 0.87 0.97 1.08 1.12 1.12 1.11 1.11 0.96 0.94 0.99 1.12 1.27 1.38 1.35 1.47 1.45 1.71 1.91 1.96 2.00 2.01 1.99 1.99 2.00 1.85 1.67 1.64 1.64 1.64 1.62 1.63
1.51 1.44 1.43 1.42 1.32 1.09 1.11 0.99 0.95 0.91 0.97 1.01 0.92 0.88 0.81 1.05 1.15 1.10 1.02 0.88 0.90 0.94 1.02 1.10 1.20 1.29 1.37 1.48 1.40 1.40 1.47 1.67 1.85 1.97 2.03 2.02 2.02 1.95 1.78 1.70 1.69 1.68 1.59
1.50 1.47 1.40 1.24 1.20 1.00 0.90 1.01 1.01 0.92 0.87 1.09 1.14 0.87 0.76 0.77 0.87 1.08 1.10 0.90 0.85 0.86 0.90 0.97 1.06 1.10 1.12 1.17 1.21 1.28 1.31 1.35 1.39 1.59 1.83 1.97 2.01 2.04 1.99 1.91 1.81 1.75 1.71
1.43 1.40 1.33 1.29 1.03 0.96 0.98 0.99 0.97 0.94 0.93 0.91 0.97 0.99 0.96 0.93 0.80 0.80 0.98 0.94 0.93 0.87 0.88 0.87 0.92 0.96 0.95 0.98 1.07 1.08 1.08 1.08 1.14 1.23 1.35 1.58 1.79 1.93 2.00 1.99 1.94 1.84 1.76
1.43 1.29 1.34 1.18 1.00 0.94 1.05 0.98 0.95 0.95 1.01 0.93 0.92 0.96 1.00 0.92 0.90 0.79 0.72 0.84 0.94 0.97 0.92 0.88 0.86 0.87 0.90 0.88 0.83 0.89 0.87 0.92 0.95 0.99 1.04 1.12 1.25 1.47 1.71 1.87 1.91 1.92 1.90
1.35 1.38 1.40 1.24 1.06 1.01 1.05 1.01 0.95 0.96 0.94 0.97 1.02 1.12 0.94 0.85 0.86 0.83 0.76 0.79 0.82 0.88 0.93 0.92 0.92 0.85 0.86 0.88 0.84 0.77 0.78 0.78 0.78 0.79 0.82 0.88 0.95 1.04 1.21 1.41 1.65 1.77 1.83
1.28 1.35 1.41 1.30 1.21 1.19 1.15 1.03 0.96 0.97 0.95 0.96 1.00 1.05 1.13 1.05 1.02 0.95 0.88 0.83 0.82 0.93 0.96 1.03 1.07 0.99 0.92 0.92 0.94 0.90 0.88 0.84 0.79 0.75 0.75 0.77 0.79 0.82 0.89 1.03 1.17 1.40 1.61
1.32 1.42 1.48 1.43 1.31 1.30 1.22 1.07 0.99 1.02 1.06 1.01 0.98 1.06 1.09 1.13 1.07 1.05 0.97 0.94 0.83 0.83 0.93 1.03 1.13 0.99 0.98 0.98 0.97 0.95 0.97 0.93 0.85 0.79 0.76 0.75 0.74 0.74 0.78 0.81 0.92 1.03 1.18
1.34 1.44 1.43 1.39 1.37 1.44 1.27 1.15 1.04 1.04 0.99 0.98 0.95 0.99 1.05 1.04 1.04 1.06 1.15 1.12 0.95 0.75 0.72 0.85 0.89 1.03 1.05 1.08 1.08 1.04 1.03 1.03 0.95 0.90 0.83 0.81 0.76 0.73 0.72 0.75 0.78 0.84 0.93
1.42 1.45 1.38 1.30 1.30 1.41 1.36 1.27 1.17 1.11 0.99 0.89 0.92 0.97 1.02 1.02 1.08 1.16 1.16 1.09 1.02 0.91 0.76 0.87 0.87 0.97 1.06 1.08 1.14 1.11 1.09 1.04 1.00 0.99 0.92 0.86 0.83 0.80 0.77 0.76 0.75 0.76 0.80
1.36 1.34 1.32 1.26 1.36 1.26 1.35 1.34 1.20 1.13 1.07 0.97 0.95 1.04 1.07 1.18 1.09 1.08 1.09 1.04 1.02 0.98 0.85 0.88 0.99 1.04 1.01 1.03 1.06 1.14 1.14 1.10 1.09 1.06 1.01 0.94 0.87 0.85 0.81 0.80 0.81 0.78 0.78
1.28 1.27 1.34 1.29 1.24 1.27 1.31 1.37 1.28 1.17 1.09 1.04 1.04 1.04 1.11 1.20 1.19 1.22 1.19 1.18 1.08 1.04 1.00 0.92 0.96 1.02 1.02 1.01 1.04 1.06 1.10 1.08 1.06 1.06 1.02 0.97 0.91 0.84 0.84 0.85 0.83 0.79 0.79
1.15 1.31 1.37 1.40 1.35 1.37 1.31 1.36 1.36 1.25 1.14 1.13 1.16 1.15 1.13 1.23 1.21 1.21 1.14 1.08 1.08 1.03 1.03 0.94 0.98 1.06 1.02 1.00 0.99 1.04 1.08 1.00 1.05 1.05 1.03 1.00 0.93 0.88 0.88 0.88 0.86 0.85 0.81
1.15 1.26 1.30 1.36 1.45 1.42 1.31 1.37 1.39 1.31 1.16 1.19 1.26 1.30 1.27 1.28 1.26 1.26 1.22 1.18 1.12 1.06 1.01 0.99 1.01 1.01 0.98 1.00 1.02 0.97 0.97 1.00 0.94 1.01 1.01 0.96 0.89 0.87 0.91 0.90 0.88 0.85 0.83
1.18 1.09 1.18 1.31 1.38 1.42 1.24 1.36 1.33 1.28 1.21 1.24 1.30 1.38 1.41 1.42 1.38 1.32 1.24 1.15 1.08 0.97 0.97 0.96 0.94 0.93 0.86 0.92 0.98 1.00 0.94 0.96 0.97 1.05 0.93 0.86 0.79 0.86 0.91 0.89 0.86 0.86 0.86
1.29 1.30 1.25 1.28 1.36 1.33 1.23 1.29 1.26 1.29 1.33 1.35 1.36 1.46 1.48 1.44 1.48 1.46 1.41 1.31 1.17 1.00 0.95 0.92 0.91 0.84 0.86 1.00 1.03 0.98 0.91 0.86 0.81 0.95 0.85 0.73 0.86 0.85 0.86 0.84 0.85 0.85 0.85
1.52 1.36 1.35 1.40 1.40 1.41 1.36 1.25 1.22 1.29 1.36 1.39 1.41 1.37 1.42 1.48 1.57 1.56 1.52 1.42 1.18 1.04 1.03 1.00 0.95 0.96 0.99 0.99 0.96 0.91 0.89 0.86 0.76 0.76 0.80 0.70 0.84 0.75 0.83 0.86 0.89 0.94 0.95
1.45 1.48 1.44 1.48 1.50 1.47 1.40 1.38 1.38 1.35 1.38 1.42 1.42 1.40 1.41 1.48 1.51 1.49 1.40 1.23 1.06 1.03 1.07 1.09 1.03 0.96 0.96 0.95 0.90 0.88 0.86 0.84 0.85 0.86 0.86 0.66 0.78 0.67 0.81 0.96 1.02 1.03 1.01
1.51 1.51 1.55 1.54 1.53 1.50 1.43 1.43 1.40 1.38 1.31 1.33 1.36 1.36 1.35 1.33 1.50 1.34 1.20 0.99 0.97 0.97 1.05 1.02 0.96 0.92 0.93 0.88 0.82 0.78 0.73 0.77 0.72 0.75 0.77 0.72 0.69 0.77 0.94 1.02 1.15 1.16 1.13
1.48 1.51 1.52 1.53 1.51 1.44 1.44 1.34 1.28 1.30 1.26 1.24 1.30 1.35 1.41 1.40 1.35 1.23 1.07 0.96 0.88 0.90 0.94 0.90 0.91 0.98 0.92 0.85 0.76 0.81 0.81 0.74 0.72 0.62 0.66 0.68 0.69 0.88 0.94 1.19 1.25 1.27 1.24

GFSMA_prec_pwat_003.txt.gz
Precipitable_Water
1.85 1.91 1.75 1.68 1.71 1.69 1.79 1.61 1.60 1.57 1.53 1.57 1.51 1.35 1.24 1.11 1.04 0.99 1.12 1.26 1.44 1.64 1.87 1.97 1.99 2.16 2.00 1.75 1.71 1.69 1.49 1.41 1.34 1.32 1.42 1.44 1.67 1.59 1.55 1.50 1.50 1.68 1.84
1.95 1.82 1.85 1.74 1.70 1.64 1.71 1.56 1.59 1.47 1.46 1.40 1.26 1.27 1.16 1.15 1.10 1.07 1.11 1.25 1.25 1.43 1.69 1.86 1.93 1.93 2.10 2.02 1.85 1.76 1.75 1.64 1.49 1.36 1.33 1.47 1.57 1.65 1.57 1.45 1.43 1.47 1.57
1.72 1.74 1.78 1.72 1.69 1.65 1.65 1.61 1.67 1.52 1.29 1.16 1.15 1.14 1.19 1.18 1.13 1.11 1.10 1.15 1.28 1.33 1.44 1.65 1.82 1.89 1.95 2.03 2.04 1.92 1.75 1.75 1.73 1.64 1.61 1.43 1.44 1.46 1.55 1.58 1.54 1.51 1.57
1.79 1.75 1.66 1.70 1.72 1.65 1.72 1.62 1.55 1.51 1.19 1.05 1.07 1.14 1.13 1.15 1.12 1.16 1.17 1.08 1.12 1.15 1.39 1.48 1.65 1.73 1.78 1.89 2.00 2.04 2.05 1.95 1.81 1.67 1.63 1.64 1.58 1.49 1.50 1.57 1.64 1.63 1.66
1.80 1.74 1.65 1.63 1.76 1.67 1.62 1.52 1.44 1.31 1.00 0.98 1.04 1.04 1.16 1.16 1.14 1.23 1.10 1.17 1.21 1.24 1.19 1.35 1.38 1.50 1.65 1.76 1.82 1.94 2.02 2.04 2.02 1.93 1.87 1.68 1.60 1.58 1.57 1.61 1.60 1.63 1.63
1.78 1.77 1.71 1.73 1.65 1.61 1.46 1.63 1.39 0.97 0.92 1.07 0.96 0.92 1.13 1.20 1.17 1.11 1.06 1.04 1.08 1.23 1.41 1.37 1.44 1.42 1.42 1.63 1.82 1.84 1.88 1.96 1.98 2.01 2.00 1.95 1.83 1.63 1.59 1.59 1.64 1.66 1.67
1.65 1.69 1.67 1.64 1.63 1.51 1.50 1.20 1.00 0.94 1.02 1.14 0.91 1.09 1.13 1.20 1.17 1.10 1.02 0.99 0.98 0.97 1.11 1.22 1.37 1.50 1.66 1.49 1.49 1.72 1.85 1.92 1.94 1.97 1.93 1.95 1.94 1.87 1.71 1.61 1.59 1.62 1.63
1.66 1.58 1.53 1.44 1.42 1.46 1.25 1.11 0.96 0.86 1.03 1.13 0.95 0.90 0.95 1.16 1.26 1.25 1.05 0.93 0.90 0.97 1.07 1.15 1.20 1.23 1.40 1.50 1.42 1.37 1.43 1.63 1.76 1.81 1.87 1.93 1.98 1.96 1.90 1.81 1.64 1.60 1.62
1.49 1.48 1.53 1.47 1.53 1.21 0.92 1.10 0.99 0.91 0.88 1.14 1.08 0.93 0.84 0.96 1.01 1.20 1.18 0.97 0.89 0.86 0.92 1.01 1.09 1.07 1.08 1.17 1.26 1.20 1.17 1.29 1.37 1.39 1.47 1.66 1.79 1.91 1.95 1.92 1.88 1.81 1.74
1.48 1.55 1.56 1.47 1.37 1.04 1.07 0.98 1.01 0.93 0.90 0.93 1.03 1.08 0.89 0.93 0.80 0.94 1.15 1.11 1.02 0.94 0.92 0.91 0.95 1.01 0.95 0.96 0.98 0.96 0.92 0.97 1.04 1.11 1.17 1.21 1.29 1.50 1.75 1.88 1.92 1.87 1.86
1.50 1.49 1.46 1.53 1.33 1.05 1.17 1.04 1.00 0.95 1.12 0.95 0.93 0.96 1.04 0.93 0.84 0.74 0.74 0.95 1.01 1.04 0.98 0.88 0.89 0.86 0.91 0.91 0.88 0.88 0.74 0.75 0.78 0.85 0.91 0.96 1.01 1.05 1.15 1.39 1.66 1.77 1.81
1.50 1.47 1.47 1.55 1.38 1.13 1.21 1.19 1.12 1.06 1.04 1.05 1.03 1.02 0.99 0.89 0.94 0.89 0.79 0.82 0.86 0.97 1.02 1.01 0.96 0.95 0.90 0.92 0.95 0.85 0.80 0.74 0.71 0.70 0.71 0.75 0.78 0.82 0.89 0.96 1.05 1.27 1.52
1.45 1.61 1.51 1.68 1.51 1.35 1.35 1.27 1.17 1.16 1.08 1.07 0.99 1.06 1.10 1.09 1.08 0.99 0.90 0.87 0.89 1.01 1.02 1.03 1.07 1.11 1.02 0.96 0.96 0.97 0.96 0.86 0.84 0.75 0.70 0.70 0.71 0.71 0.73 0.76 0.80 0.88 1.05
1.48 1.54 1.63 1.67 1.56 1.47 1.48 1.42 1.27 1.16 1.16 1.08 1.01 1.01 1.10 1.10 1.14 1.11 0.99 0.96 0.89 0.93 0.99 0.99 1.15 1.05 1.07 1.00 1.02 0.98 1.00 1.05 0.97 0.90 0.80 0.76 0.73 0.72 0.71 0.70 0.72 0.75 0.79
1.50 1.45 1.51 1.42 1.45 1.41 1.48 1.41 1.32 1.34 1.19 1.12 1.05 1.07 1.07 1.11 1.10 1.11 1.11 1.09 0.99 0.83 0.85 0.98 0.94 1.10 1.08 1.15 1.15 1.11 1.10 1.13 1.08 1.02 0.95 0.92 0.85 0.80 0.78 0.76 0.73 0.73 0.73
1.49 1.45 1.45 1.39 1.38 1.38 1.47 1.30 1.31 1.39 1.34 1.22 1.15 1.06 1.09 1.11 1.08 1.18 1.18 1.16 1.06 0.93 0.82 0.95 0.99 1.08 1.12 1.14 1.19 1.21 1.14 1.11 1.05 1.02 1.00 0.99 0.95 0.89 0.85 0.82 0.80 0.78 0.77
1.54 1.34 1.25 1.29 1.31 1.46 1.54 1.43 1.33 1.37 1.48 1.37 1.26 1.09 1.13 1.14 1.09 1.13 1.16 1.18 1.08 1.06 0.91 0.86 1.02 1.12 1.18 1.13 1.14 1.22 1.26 1.18 1.13 1.07 1.04 1.00 0.97 0.91 0.87 0.85 0.83 0.84 0.83
1.46 1.30 1.22 1.34 1.37 1.37 1.43 1.36 1.31 1.30 1.32 1.27 1.22 1.17 1.19 1.34 1.37 1.31 1.21 1.19 1.23 1.12 1.02 0.95 0.95 1.03 1.11 1.16 1.15 1.09 1.11 1.12 1.10 1.05 1.03 0.99 0.96 0.95 0.93 0.88 0.82 0.81 0.86
1.43 1.34 1.25 1.26 1.17 1.23 1.32 1.28 1.33 1.27 1.28 1.32 1.31 1.29 1.29 1.35 1.35 1.35 1.30 1.22 1.19 1.22 1.23 1.06 0.98 1.03 1.17 1.07 1.07 1.11 1.07 1.11 1.12 1.06 1.07 1.08 1.03 1.00 0.92 0.85 0.80 0.82 0.86
1.29 1.21 1.14 1.15 1.16 1.27 1.29 1.32 1.37 1.31 1.24 1.35 1.36 1.36 1.36 1.36 1.37 1.40 1.42 1.45 1.39 1.34 1.27 1.18 1.11 1.02 1.03 1.04 1.07 1.01 0.97 1.06 1.05 1.07 1.08 1.02 0.94 1.03 0.92 0.83 0.80 0.86 0.89
1.28 1.14 1.15 1.20 1.26 1.31 1.33 1.38 1.40 1.35 1.24 1.36 1.34 1.38 1.40 1.43 1.54 1.57 1.48 1.42 1.47 1.39 1.36 1.22 1.03 1.00 1.02 1.01 0.97 1.03 1.00 1.04 1.04 1.06 0.92 0.93 0.97 0.89 0.84 0.79 0.84 0.92 0.94
1.41 1.29 1.22 1.18 1.27 1.28 1.25 1.30 1.42 1.29 1.24 1.31 1.38 1.44 1.47 1.53 1.46 1.41 1.41 1.50 1.60 1.48 1.35 1.23 1.07 0.96 0.95 1.00 1.06 1.00 0.97 0.86 0.74 0.94 0.88 0.82 0.84 0.77 0.82 0.83 0.90 0.88 0.81
1.59 1.33 1.19 1.20 1.30 1.36 1.35 1.30 1.33 1.37 1.25 1.35 1.42 1.41 1.45 1.44 1.40 1.41 1.45 1.49 1.49 1.49 1.47 1.24 1.07 1.02 1.00 0.98 0.96 0.88 0.85 0.83 0.75 0.81 0.82 0.71 0.81 0.77 0.85 0.88 0.86 0.79 0.75
1.49 1.45 1.39 1.35 1.38 1.47 1.47 1.39 1.39 1.36 1.27 1.28 1.39 1.41 1.43 1.42 1.43 1.39 1.37 1.37 1.40 1.41 1.33 1.27 1.19 1.06 1.02 0.99 0.93 0.91 0.88 0.81 0.72 0.73 0.84 0.66 0.79 0.75 0.83 0.85 0.73 0.71 0.75
1.53 1.47 1.49 1.53 1.51 1.53 1.53 1.46 1.46 1.41 1.35 1.38 1.38 1.42 1.39 1.34 1.34 1.35 1.30 1.22 1.22 1.28 1.33 1.18 1.09 0.99 0.95 0.91 0.95 0.89 0.67 0.61 0.58 0.63 0.71 0.71 0.71 0.62 0.64 0.59 0.70 0.86 1.01
1.63 1.60 1.54 1.57 1.61 1.59 1.60 1.55 1.52 1.41 1.27 1.28 1.41 1.43 1.33 1.25 1.27 1.27 1.20 1.12 1.09 1.07 1.04 0.98 1.02 0.97 0.96 0.99 0.94 0.85 0.84 0.75 0.69 0.63 0.66 0.57 0.53 0.51 0.61 0.84 0.92 1.04 1.16

GFSMA_prec_pwat_006.txt.gz
Precipitable_Water
1.76 1.97 1.79 1.78 1.70 1.79 1.62 1.57 1.52 1.53 1.41 1.39 1.29 1.30 1.18 1.11 1.09 1.02 1.20 1.21 1.28 1.39 1.67 1.92 2.00 1.89 1.89 1.84 1.87 1.75 1.55 1.47 1.41 1.41 1.48 1.47 1.49 1.53 1.56 1.54 1.56 1.62 1.87
1.75 1.93 1.76 1.64 1.61 1.65 1.56 1.57 1.49 1.54 1.46 1.46 1.33 1.21 1.14 1.25 1.11 1.16 1.11 1.28 1.24 1.33 1.44 1.75 1.91 1.93 2.08 1.96 1.77 1.83 1.86 1.65 1.46 1.37 1.35 1.41 1.48 1.67 1.62 1.55 1.50 1.46 1.51
1.61 1.68 1.73 1.65 1.69 1.63 1.64 1.68 1.66 1.55 1.61 1.33 1.13 1.13 1.21 1.17 1.16 1.03 1.04 1.19 1.32 1.27 1.35 1.47 1.74 1.84 1.89 2.02 2.01 1.88 1.90 2.02 1.86 1.69 1.56 1.44 1.45 1.46 1.50 1.53 1.52 1.51 1.51
1.62 1.67 1.62 1.76 1.97 1.70 1.64 1.75 1.56 1.43 1.39 1.10 1.00 1.15 1.10 1.18 1.12 1.22 1.27 1.01 1.14 1.22 1.27 1.33 1.47 1.64 1.72 1.79 1.94 2.05 2.00 1.91 1.83 1.81 1.76 1.69 1.65 1.53 1.48 1.57 1.63 1.66 1.62
1.82 1.67 1.64 1.68 1.87 1.62 1.51 1.60 1.58 1.52 1.09 0.89 0.97 1.10 1.17 1.10 1.10 1.19 1.05 1.24 1.17 1.21 1.38 1.35 1.30 1.34 1.51 1.67 1.78 1.87 1.96 2.01 2.02 2.01 1.95 1.85 1.73 1.64 1.62 1.57 1.55 1.55 1.63
1.70 1.82 1.74 1.71 1.60 1.50 1.57 1.51 1.51 1.17 0.90 0.99 1.03 0.91 1.12 1.24 1.22 1.02 1.05 1.11 1.11 1.24 1.46 1.57 1.43 1.46 1.46 1.59 1.67 1.77 1.78 1.85 1.96 2.01 2.04 2.03 2.00 1.88 1.75 1.64 1.60 1.65 1.67
1.67 1.68 1.60 1.67 1.62 1.40 1.49 1.42 1.08 0.79 0.98 1.05 0.98 1.07 1.16 1.28 1.22 1.17 1.02 0.97 0.98 1.03 1.08 1.22 1.41 1.45 1.54 1.61 1.54 1.53 1.71 1.81 1.82 1.85 1.88 1.95 1.97 1.97 1.94 1.84 1.70 1.64 1.63
1.55 1.59 1.46 1.47 1.57 1.56 1.37 1.18 0.99 0.78 1.02 1.07 0.85 0.94 1.02 1.18 1.29 1.24 1.11 0.95 0.88 0.97 1.06 1.14 1.16 1.21 1.35 1.36 1.35 1.29 1.35 1.41 1.56 1.71 1.78 1.79 1.83 1.87 1.94 1.90 1.89 1.77 1.65
1.49 1.61 1.56 1.49 1.44 1.43 1.14 1.06 1.02 0.84 0.89 1.11 1.12 0.99 0.95 0.93 1.13 1.27 1.18 1.06 0.98 0.89 0.87 0.98 1.00 1.00 1.04 1.18 1.20 1.14 1.05 1.11 1.26 1.35 1.43 1.49 1.56 1.67 1.79 1.96 1.91 1.86 1.84
1.47 1.42 1.36 1.46 1.50 1.19 1.11 1.07 1.00 0.86 0.92 1.01 1.14 1.07 0.90 1.03 0.96 0.94 1.18 1.15 1.05 0.95 0.93 0.86 0.89 0.98 0.94 0.98 0.96 0.91 0.83 0.82 0.91 1.00 1.08 1.13 1.17 1.21 1.30 1.45 1.71 1.90 1.88
1.48 1.59 1.54 1.47 1.34 1.09 1.14 1.17 1.09 0.89 1.06 0.98 0.98 1.05 1.05 0.90 0.83 0.85 0.85 0.97 1.10 1.06 0.96 0.94 0.90 0.83 0.89 0.88 0.92 0.92 0.83 0.73 0.69 0.72 0.76 0.83 0.90 0.94 0.98 1.02 1.09 1.28 1.64
1.49 1.39 1.47 1.45 1.43 1.17 1.30 1.27 1.24 1.16 1.08 1.06 1.03 1.03 1.01 0.93 0.95 0.91 0.81 0.86 0.89 0.99 1.07 1.09 1.04 0.97 0.97 0.94 0.95 0.92 0.90 0.88 0.79 0.70 0.70 0.70 0.71 0.73 0.76 0.81 0.86 0.91 0.96
1.37 1.47 1.45 1.53 1.58 1.41 1.43 1.41 1.40 1.41 1.25 1.10 1.00 1.01 1.11 0.99 1.00 0.97 0.92 0.86 0.88 0.97 1.05 1.12 1.14 1.13 1.06 0.99 0.93 0.90 0.89 0.88 0.87 0.87 0.84 0.72 0.71 0.71 0.70 0.69 0.70 0.74 0.79
1.41 1.64 1.62 1.61 1.63 1.47 1.35 1.39 1.41 1.37 1.33 1.32 1.15 1.10 1.11 1.09 1.09 1.09 1.13 0.90 0.84 0.91 0.97 0.98 1.13 1.17 1.13 1.06 1.04 1.00 0.98 1.00 1.01 1.01 0.99 0.94 0.86 0.84 0.78 0.73 0.71 0.70 0.69
1.57 1.61 1.58 1.53 1.47 1.46 1.41 1.43 1.37 1.41 1.47 1.39 1.33 1.20 1.08 1.16 1.32 1.23 1.17 1.14 0.97 0.85 0.89 0.99 0.98 1.15 1.16 1.16 1.15 1.12 1.15 1.12 1.07 1.04 0.99 0.95 0.94 0.93 0.90 0.84 0.79 0.77 0.74
1.56 1.52 1.55 1.46 1.47 1.39 1.38 1.39 1.34 1.39 1.32 1.30 1.30 1.33 1.32 1.27 1.35 1.32 1.22 1.21 1.20 1.12 0.86 1.06 1.04 1.10 1.16 1.15 1.17 1.19 1.17 1.15 1.09 1.09 1.04 1.04 1.03 0.99 0.96 0.90 0.87 0.83 0.79
1.59 1.54 1.45 1.44 1.38 1.37 1.34 1.34 1.28 1.24 1.23 1.25 1.20 1.16 1.20 1.25 1.13 1.19 1.33 1.38 1.23 1.13 0.96 1.05 1.07 1.08 1.03 1.08 1.12 1.20 1.25 1.19 1.17 1.13 1.14 1.09 1.09 1.04 1.00 0.95 0.92 0.87 0.84
1.58 1.52 1.54 1.43 1.36 1.33 1.32 1.32 1.23 1.22 1.27 1.21 1.27 1.20 1.09 1.17 1.18 1.37 1.35 1.28 1.28 1.32 1.25 1.07 1.17 1.17 1.11 1.13 1.14 1.16 1.12 1.14 1.14 1.13 1.11 1.16 1.14 1.10 1.07 1.01 0.94 0.90 0.85
1.54 1.50 1.50 1.44 1.33 1.30 1.29 1.33 1.32 1.26 1.23 1.19 1.19 1.20 1.11 1.21 1.27 1.38 1.46 1.40 1.42 1.43 1.41 1.40 1.32 1.33 1.21 1.14 1.03 1.10 1.12 1.17 1.30 1.20 1.15 1.12 1.10 1.07 1.05 1.02 0.97 0.95 0.86
1.57 1.52 1.50 1.46 1.36 1.28 1.29 1.30 1.35 1.32 1.26 1.23 1.28 1.31 1.23 1.28 1.34 1.36 1.33 1.33 1.39 1.41 1.42 1.41 1.49 1.47 1.42 1.28 1.16 1.14 1.12 1.17 1.15 1.15 1.13 1.10 1.02 1.03 0.96 0.94 0.93 0.91 0.85
1.74 1.72 1.64 1.56 1.48 1.31 1.27 1.30 1.33 1.32 1.30 1.28 1.37 1.37 1.27 1.34 1.43 1.38 1.42 1.50 1.44 1.35 1.28 1.29 1.30 1.33 1.25 1.18 1.12 1.13 1.10 1.06 1.00 0.97 0.98 0.99 0.93 0.96 0.95 0.91 0.90 0.86 0.80
1.87 1.85 1.68 1.56 1.51 1.38 1.20 1.28 1.39 1.42 1.38 1.33 1.32 1.42 1.28 1.39 1.42 1.48 1.48 1.44 1.36 1.24 1.25 1.24 1.24 1.19 1.09 1.17 1.12 1.07 1.05 0.91 0.72 0.95 0.93 0.84 0.86 0.79 0.76 0.80 0.79 0.87 0.87
1.89 1.81 1.73 1.61 1.43 1.42 1.33 1.36 1.50 1.46 1.37 1.37 1.42 1.42 1.28 1.38 1.48 1.47 1.42 1.35 1.35 1.34 1.33 1.28 1.20 1.15 1.14 1.16 1.18 1.05 0.92 0.83 0.78 0.86 0.77 0.61 0.73 0.77 0.82 0.83 0.83 0.83 0.87
1.83 1.79 1.69 1.59 1.48 1.47 1.42 1.33 1.36 1.38 1.39 1.47 1.41 1.42 1.33 1.32 1.41 1.43 1.35 1.28 1.28 1.32 1.35 1.27 1.25 1.21 1.18 1.14 1.06 0.99 0.84 0.82 0.84 0.76 0.81 0.66 0.71 0.66 0.73 0.77 0.75 0.68 0.65
1.69 1.65 1.62 1.50 1.47 1.51 1.54 1.52 1.48 1.49 1.46 1.37 1.40 1.38 1.40 1.40 1.44 1.40 1.29 1.21 1.21 1.22 1.24 1.22 1.24 1.18 1.17 1.08 1.04 0.92 0.82 0.76 0.67 0.71 0.77 0.64 0.69 0.64 0.58 0.54 0.55 0.83 0.97
1.55 1.60 1.58 1.53 1.53 1.60 1.61 1.57 1.63 1.50 1.38 1.43 1.41 1.39 1.41 1.42 1.41 1.34 1.26 1.27 1.17 1.10 1.13 1.12 1.08 1.06 1.08 1.04 0.99 0.99 0.89 0.75 0.74 0.69 0.73 0.61 0.58 0.50 0.38 0.66 0.91 1.00 1.00

GFSMA_prec_pwat_009.txt.gz
Precipitable_Water
1.83 1.78 1.74 1.77 1.73 1.71 1.62 1.58 1.58 1.49 1.44 1.39 1.35 1.25 1.11 1.14 1.11 1.10 1.18 1.29 1.28 1.39 1.55 1.85 1.90 1.81 1.85 1.84 1.77 1.66 1.67 1.48 1.53 1.55 1.59 1.53 1.53 1.47 1.63 1.62 1.61 1.63 1.82
1.58 1.87 1.82 1.69 1.66 1.62 1.75 1.56 1.55 1.52 1.41 1.34 1.33 1.18 1.12 1.21 1.13 1.13 1.15 1.24 1.34 1.37 1.45 1.67 1.86 1.84 1.87 1.90 1.82 1.83 1.73 1.62 1.61 1.38 1.43 1.58 1.47 1.64 1.63 1.55 1.50 1.52 1.52
1.65 1.64 1.67 1.68 1.89 1.75 1.64 1.56 1.59 1.48 1.34 1.31 1.00 1.03 1.12 1.10 1.14 1.05 1.15 1.19 1.32 1.30 1.43 1.49 1.71 1.81 1.79 1.97 1.84 1.80 1.89 1.96 1.88 1.66 1.45 1.38 1.44 1.44 1.55 1.61 1.59 1.52 1.51
1.68 1.66 1.68 1.71 1.84 1.81 1.60 1.53 1.45 1.45 1.34 1.13 0.83 1.08 1.06 1.11 1.12 1.19 1.20 1.09 1.21 1.21 1.31 1.35 1.42 1.60 1.68 1.75 1.88 2.00 1.97 1.87 1.89 1.90 1.86 1.77 1.71 1.61 1.49 1.46 1.58 1.66 1.65
1.89 1.72 1.68 1.70 1.71 1.67 1.58 1.52 1.45 1.42 1.16 0.78 0.93 1.09 1.03 1.10 1.10 1.09 1.08 1.12 1.22 1.24 1.30 1.35 1.36 1.35 1.53 1.70 1.80 1.86 1.93 1.92 1.92 1.94 1.88 1.85 1.81 1.75 1.68 1.64 1.56 1.55 1.57
1.69 1.59 1.68 1.67 1.70 1.63 1.45 1.38 1.22 1.11 0.83 0.94 1.01 0.95 1.05 1.15 1.18 1.08 1.08 1.12 1.18 1.32 1.41 1.45 1.39 1.42 1.34 1.55 1.64 1.72 1.76 1.82 1.91 1.95 2.03 2.07 2.02 1.97 1.87 1.76 1.65 1.63 1.68
1.72 1.56 1.55 1.55 1.61 1.47 1.31 1.32 1.18 0.80 0.89 1.03 0.99 1.01 1.10 1.22 1.18 1.13 1.06 1.00 1.02 1.07 1.20 1.20 1.28 1.39 1.54 1.54 1.52 1.48 1.54 1.72 1.79 1.84 1.87 1.90 1.95 2.02 2.00 1.96 1.88 1.74 1.64
1.59 1.47 1.43 1.37 1.41 1.44 1.32 1.21 0.98 0.75 0.94 1.02 0.85 0.86 0.91 1.14 1.21 1.13 1.11 0.99 1.00 1.01 1.03 1.10 1.07 1.21 1.27 1.36 1.27 1.24 1.31 1.39 1.47 1.60 1.75 1.82 1.86 1.87 1.89 1.93 1.96 1.91 1.86
1.54 1.45 1.49 1.38 1.34 1.34 1.28 1.20 0.97 0.83 0.87 1.06 1.03 0.94 0.90 0.89 1.09 1.17 1.07 1.03 0.99 0.93 0.91 0.92 0.94 0.96 1.10 1.13 1.11 1.04 0.93 0.93 1.11 1.25 1.32 1.39 1.46 1.53 1.60 1.74 1.90 2.01 1.89
1.45 1.37 1.35 1.38 1.40 1.32 1.29 1.17 1.19 1.03 1.06 1.02 1.11 1.07 0.97 1.05 0.93 0.91 1.11 1.06 0.99 0.96 0.95 0.93 0.96 0.93 0.92 0.99 0.97 0.88 0.80 0.72 0.73 0.82 0.91 0.98 1.05 1.11 1.18 1.26 1.35 1.49 1.80
1.54 1.48 1.38 1.47 1.47 1.41 1.27 1.22 1.20 1.09 1.25 1.17 1.12 1.04 0.99 0.89 0.95 0.91 0.84 0.91 1.01 1.03 1.02 0.97 0.99 0.94 0.93 0.93 0.91 0.87 0.84 0.80 0.77 0.67 0.69 0.72 0.78 0.84 0.89 0.93 0.98 1.04 1.11
1.44 1.43 1.52 1.56 1.49 1.41 1.24 1.30 1.29 1.17 1.27 1.33 1.26 1.20 1.02 0.88 0.85 0.87 0.83 0.85 0.87 0.99 1.07 1.04 1.04 1.02 1.01 0.98 1.01 0.96 0.90 0.88 0.84 0.78 0.71 0.69 0.70 0.72 0.74 0.75 0.77 0.80 0.85
1.48 1.51 1.53 1.46 1.44 1.47 1.27 1.29 1.25 1.25 1.27 1.29 1.20 1.20 1.27 1.15 1.11 1.03 0.91 0.91 0.87 0.96 1.03 1.14 1.12 1.10 1.07 1.04 1.01 0.98 0.92 0.91 0.93 0.93 0.90 0.88 0.82 0.73 0.73 0.75 0.75 0.75 0.74
1.52 1.59 1.50 1.51 1.48 1.49 1.32 1.26 1.26 1.23 1.24 1.15 1.25 1.20 1.23 1.25 1.28 1.22 1.15 1.08 0.94 0.94 1.00 1.02 1.19 1.19 1.16 1.10 1.08 1.06 1.05 1.07 1.07 1.04 1.00 0.94 0.93 0.89 0.86 0.86 0.83 0.79 0.77
1.53 1.54 1.52 1.55 1.57 1.50 1.35 1.23 1.24 1.25 1.29 1.21 1.11 1.06 1.14 1.21 1.22 1.30 1.33 1.25 1.05 0.90 0.98 1.04 1.03 1.18 1.24 1.21 1.13 1.12 1.10 1.10 1.08 1.06 1.03 1.02 0.99 0.98 0.96 0.96 0.94 0.92 0.87
1.50 1.51 1.54 1.54 1.57 1.50 1.37 1.26 1.24 1.28 1.29 1.29 1.25 1.16 1.09 1.10 1.19 1.29 1.31 1.28 1.23 1.16 1.05 1.14 1.14 1.18 1.21 1.23 1.21 1.19 1.17 1.17 1.15 1.09 1.04 1.00 1.04 1.03 1.05 1.04 1.00 0.96 0.92
1.56 1.53 1.52 1.53 1.54 1.50 1.34 1.21 1.22 1.28 1.27 1.25 1.26 1.16 1.16 1.20 1.19 1.17 1.27 1.29 1.28 1.31 1.16 1.22 1.28 1.34 1.29 1.19 1.09 1.11 1.17 1.22 1.24 1.18 1.15 1.12 1.11 1.11 1.15 1.15 1.09 1.06 1.01
1.54 1.56 1.57 1.52 1.55 1.51 1.41 1.23 1.17 1.27 1.19 1.24 1.23 1.22 1.18 1.19 1.18 1.06 1.15 1.24 1.32 1.40 1.32 1.18 1.32 1.35 1.40 1.43 1.41 1.31 1.13 1.21 1.23 1.23 1.23 1.21 1.15 1.10 1.08 1.12 1.10 1.08 1.05
1.47 1.57 1.57 1.53 1.52 1.50 1.46 1.36 1.26 1.26 1.21 1.29 1.26 1.24 1.25 1.18 1.11 1.05 1.28 1.31 1.34 1.37 1.38 1.29 1.23 1.35 1.37 1.43 1.44 1.49 1.34 1.24 1.30 1.38 1.36 1.25 1.21 1.14 1.17 1.10 1.08 1.05 0.99
1.47 1.51 1.55 1.54 1.54 1.51 1.49 1.49 1.34 1.28 1.21 1.30 1.31 1.32 1.33 1.29 1.22 1.21 1.22 1.27 1.31 1.28 1.33 1.29 1.24 1.22 1.27 1.35 1.39 1.31 1.27 1.27 1.19 1.23 1.20 1.14 1.13 1.11 1.08 1.05 1.04 1.05 1.00
1.50 1.57 1.57 1.60 1.63 1.62 1.60 1.53 1.39 1.30 1.19 1.25 1.33 1.37 1.40 1.43 1.42 1.34 1.28 1.29 1.30 1.29 1.28 1.24 1.20 1.22 1.19 1.22 1.16 1.18 1.11 1.12 1.12 1.11 1.03 0.98 0.97 1.01 1.01 0.99 0.93 0.90 0.78
1.51 1.62 1.66 1.71 1.72 1.70 1.73 1.62 1.51 1.36 1.26 1.27 1.28 1.36 1.41 1.52 1.43 1.38 1.39 1.43 1.42 1.34 1.25 1.21 1.21 1.16 1.14 1.17 1.15 1.11 1.03 0.95 0.84 0.97 0.89 0.80 0.83 0.73 0.72 0.74 0.78 0.79 0.76
1.68 1.73 1.78 1.83 1.79 1.88 1.83 1.71 1.60 1.43 1.31 1.31 1.39 1.40 1.44 1.56 1.46 1.40 1.44 1.46 1.44 1.40 1.35 1.25 1.15 1.14 1.07 1.08 1.13 1.05 0.98 0.91 0.82 0.83 0.79 0.72 0.74 0.74 0.79 0.79 0.76 0.77 0.77
1.76 1.85 1.92 1.98 1.92 1.86 1.74 1.64 1.56 1.47 1.51 1.50 1.50 1.52 1.48 1.43 1.46 1.43 1.39 1.43 1.45 1.40 1.34 1.34 1.27 1.17 1.18 1.15 1.09 1.06 1.01 0.91 0.87 0.85 0.86 0.69 0.78 0.71 0.73 0.69 0.64 0.59 0.54
1.95 2.05 2.05 1.89 1.71 1.63 1.63 1.57 1.52 1.49 1.48 1.48 1.56 1.60 1.49 1.44 1.41 1.37 1.38 1.36 1.35 1.32 1.38 1.41 1.27 1.23 1.19 1.17 1.15 1.08 0.90 0.82 0.76 0.78 0.84 0.75 0.72 0.62 0.61 0.51 0.44 0.53 0.74
1.95 2.02 1.84 1.72 1.65 1.57 1.58 1.57 1.48 1.41 1.38 1.45 1.46 1.45 1.42 1.44 1.40 1.41 1.37 1.34 1.23 1.24 1.32 1.18 1.15 1.17 1.15 1.10 1.04 1.01 0.96 0.84 0.85 0.74 0.84 0.72 0.62 0.56 0.43 0.45 0.54 0.70 0.83

GFSMA_prec_pwat_015.txt.gz
Precipitable_Water
1.67 1.71 1.64 1.66 1.60 1.60 1.53 1.50 1.53 1.56 1.48 1.41 1.36 1.21 1.09 1.21 1.20 1.17 1.15 1.29 1.34 1.47 1.68 1.86 1.91 1.88 1.70 1.69 1.72 1.69 1.53 1.57 1.69 1.69 1.56 1.55 1.48 1.42 1.48 1.51 1.53 1.54 1.74
1.71 1.64 1.64 1.70 1.70 1.79 1.67 1.59 1.53 1.51 1.44 1.38 1.34 1.19 1.05 1.13 1.17 1.16 1.13 1.31 1.35 1.36 1.52 1.83 1.83 1.70 1.72 1.75 1.61 1.67 1.67 1.53 1.50 1.62 1.64 1.58 1.54 1.51 1.45 1.53 1.62 1.60 1.67
1.67 1.71 1.63 1.63 1.68 1.71 1.64 1.64 1.58 1.49 1.36 1.28 1.17 1.12 1.10 1.06 1.18 1.12 1.10 1.18 1.36 1.34 1.43 1.61 1.82 1.76 1.70 1.77 1.87 1.81 1.71 1.75 1.67 1.67 1.64 1.54 1.56 1.51 1.60 1.56 1.61 1.60 1.51
1.65 1.66 1.65 1.59 1.65 1.62 1.63 1.58 1.52 1.36 1.28 1.24 1.02 1.04 1.09 1.17 1.10 1.15 1.16 1.15 1.17 1.31 1.42 1.47 1.59 1.75 1.73 1.80 1.85 1.80 1.89 1.95 1.92 1.79 1.69 1.56 1.55 1.56 1.49 1.46 1.56 1.62 1.69
1.79 1.83 1.71 1.64 1.60 1.55 1.49 1.42 1.33 1.31 1.11 0.99 0.93 1.02 1.12 1.12 1.09 1.08 1.12 1.14 1.13 1.16 1.30 1.43 1.45 1.48 1.61 1.70 1.81 1.82 1.80 1.87 1.84 1.85 1.91 1.89 1.83 1.74 1.68 1.66 1.59 1.54 1.57
1.85 1.79 1.60 1.52 1.51 1.40 1.34 1.31 1.22 1.22 1.05 0.92 1.01 1.02 1.10 1.18 1.16 1.09 1.08 1.17 1.15 1.25 1.29 1.27 1.29 1.37 1.39 1.51 1.65 1.70 1.78 1.86 1.89 1.86 1.86 1.90 1.92 1.93 1.92 1.85 1.77 1.70 1.63
1.71 1.72 1.66 1.55 1.44 1.28 1.28 1.28 1.24 1.16 0.93 1.12 1.02 0.99 1.08 1.17 1.14 1.10 1.17 1.15 1.13 1.15 1.19 1.19 1.27 1.38 1.47 1.45 1.48 1.52 1.58 1.66 1.68 1.79 1.90 1.96 1.97 2.00 2.06 2.08 2.03 1.97 1.88
1.62 1.57 1.52 1.44 1.33 1.30 1.36 1.33 1.32 1.22 1.04 1.24 1.00 0.99 0.86 1.01 1.07 1.03 1.11 1.09 1.05 1.08 0.98 1.03 1.13 1.20 1.26 1.28 1.37 1.36 1.35 1.37 1.44 1.56 1.67 1.75 1.82 1.86 1.89 1.93 1.96 2.01 2.00
1.56 1.52 1.46 1.39 1.34 1.43 1.43 1.50 1.44 1.27 0.98 1.24 1.24 1.05 0.90 0.83 0.97 1.03 0.99 1.06 1.02 1.02 1.04 1.02 1.03 1.05 1.09 1.06 1.04 0.97 0.92 0.92 1.00 1.17 1.30 1.37 1.42 1.45 1.50 1.62 1.72 1.78 1.87
1.50 1.53 1.43 1.43 1.49 1.55 1.43 1.47 1.42 1.24 1.11 1.13 1.26 1.25 1.24 1.18 0.94 0.83 0.97 1.00 1.02 0.96 1.01 1.04 1.04 1.05 1.08 1.04 1.01 0.95 0.89 0.84 0.83 0.77 0.79 0.84 0.91 0.99 1.06 1.12 1.17 1.23 1.28
1.54 1.52 1.44 1.53 1.50 1.49 1.47 1.44 1.38 1.20 1.08 1.14 1.18 1.14 1.14 1.22 1.25 1.07 0.88 0.94 1.03 1.00 0.98 0.97 1.04 1.10 1.16 1.15 1.10 1.02 0.97 0.89 0.86 0.83 0.75 0.70 0.70 0.70 0.72 0.76 0.82 0.88 0.92
1.45 1.44 1.53 1.57 1.57 1.53 1.44 1.41 1.33 1.20 1.10 1.13 1.21 1.20 1.10 1.00 0.97 1.07 1.08 1.10 1.07 1.10 1.14 1.15 1.12 1.14 1.17 1.15 1.17 1.13 1.08 1.03 1.02 1.02 0.97 0.91 0.85 0.83 0.78 0.74 0.73 0.74 0.77
1.27 1.32 1.50 1.57 1.53 1.50 1.48 1.42 1.30 1.18 1.17 1.10 1.18 1.19 1.24 1.16 1.11 1.05 1.01 0.96 0.98 1.08 1.12 1.13 1.17 1.18 1.19 1.18 1.18 1.18 1.14 1.12 1.08 1.08 1.06 1.02 0.97 0.94 0.92 0.88 0.87 0.87 0.88
1.29 1.41 1.51 1.60 1.59 1.55 1.50 1.41 1.30 1.19 1.19 1.15 1.18 1.19 1.19 1.22 1.23 1.15 1.06 0.99 0.89 0.95 1.03 1.01 1.19 1.25 1.27 1.21 1.20 1.19 1.20 1.18 1.13 1.12 1.14 1.17 1.15 1.09 1.05 1.03 1.01 0.98 0.97
1.38 1.42 1.51 1.57 1.62 1.58 1.49 1.44 1.30 1.16 1.20 1.14 1.16 1.21 1.17 1.21 1.28 1.28 1.20 1.12 0.98 0.84 0.86 1.03 1.08 1.20 1.23 1.23 1.22 1.21 1.19 1.12 1.06 1.06 1.12 1.18 1.20 1.19 1.15 1.13 1.12 1.08 1.05
1.39 1.42 1.49 1.57 1.60 1.57 1.50 1.46 1.37 1.23 1.14 1.17 1.16 1.12 1.12 1.12 1.22 1.32 1.29 1.21 1.16 1.04 0.90 1.13 1.17 1.25 1.26 1.32 1.34 1.37 1.35 1.34 1.30 1.32 1.23 1.20 1.23 1.27 1.29 1.28 1.22 1.18 1.15
1.37 1.40 1.46 1.55 1.57 1.57 1.53 1.50 1.42 1.37 1.17 1.10 1.17 1.13 1.12 1.14 1.06 1.22 1.33 1.28 1.19 1.14 1.00 1.12 1.26 1.31 1.31 1.34 1.38 1.42 1.45 1.43 1.44 1.44 1.43 1.40 1.33 1.32 1.30 1.31 1.31 1.30 1.26
1.36 1.44 1.53 1.55 1.57 1.60 1.58 1.52 1.44 1.48 1.40 1.14 1.08 1.12 1.13 1.19 1.10 1.16 1.26 1.26 1.27 1.24 1.13 1.06 1.18 1.25 1.28 1.35 1.35 1.33 1.35 1.40 1.41 1.47 1.47 1.46 1.43 1.34 1.32 1.35 1.32 1.27 1.27
1.30 1.41 1.48 1.51 1.53 1.55 1.52 1.54 1.56 1.57 1.58 1.48 1.25 1.13 1.14 1.20 1.13 1.12 1.24 1.24 1.28 1.27 1.17 1.18 1.16 1.27 1.31 1.33 1.30 1.31 1.27 1.27 1.34 1.41 1.45 1.42 1.36 1.27 1.20 1.14 1.14 1.14 1.11
1.26 1.35 1.42 1.48 1.54 1.58 1.58 1.59 1.60 1.63 1.66 1.69 1.61 1.40 1.21 1.20 1.16 1.17 1.26 1.24 1.26 1.23 1.18 1.23 1.21 1.26 1.21 1.29 1.34 1.21 1.16 1.20 1.21 1.33 1.36 1.32 1.25 1.17 1.10 1.03 1.02 1.01 0.98
1.29 1.34 1.40 1.49 1.55 1.59 1.59 1.54 1.55 1.63 1.73 1.74 1.76 1.61 1.46 1.26 1.27 1.25 1.24 1.34 1.39 1.26 1.18 1.19 1.23 1.22 1.18 1.25 1.19 1.21 1.15 1.14 1.14 1.19 1.12 1.08 1.07 1.00 0.89 0.88 0.89 0.88 0.87
1.29 1.31 1.33 1.36 1.38 1.47 1.51 1.53 1.65 1.77 1.88 1.85 1.72 1.71 1.55 1.35 1.28 1.30 1.33 1.42 1.47 1.29 1.26 1.22 1.22 1.16 1.22 1.27 1.24 1.18 1.15 1.06 0.94 1.15 1.05 1.01 1.09 0.91 0.87 0.88 0.89 0.87 0.86
1.29 1.22 1.26 1.31 1.29 1.36 1.41 1.53 1.72 1.73 1.70 1.85 1.80 1.75 1.54 1.40 1.26 1.30 1.37 1.47 1.50 1.43 1.38 1.30 1.26 1.29 1.26 1.27 1.27 1.18 1.15 1.11 0.99 1.07 1.07 0.94 1.02 0.90 0.96 0.98 0.91 0.84 0.75
1.22 1.22 1.23 1.28 1.32 1.35 1.46 1.63 1.82 1.54 1.57 1.81 1.84 1.78 1.56 1.39 1.24 1.26 1.43 1.42 1.46 1.43 1.41 1.42 1.35 1.31 1.40 1.41 1.30 1.25 1.16 1.11 1.09 1.10 1.10 0.83 0.93 0.89 0.93 0.89 0.84 0.76 0.65
1.24 1.23 1.32 1.33 1.33 1.43 1.67 1.79 1.82 1.56 1.69 1.85 1.85 1.66 1.53 1.40 1.28 1.42 1.44 1.36 1.30 1.35 1.44 1.36 1.40 1.43 1.41 1.35 1.32 1.19 1.05 0.96 0.87 0.88 0.95 0.88 0.85 0.76 0.74 0.70 0.65 0.57 0.53
1.32 1.35 1.37 1.42 1.49 1.63 1.77 1.79 1.65 1.64 1.73 1.76 1.63 1.52 1.44 1.36 1.45 1.48 1.41 1.34 1.23 1.20 1.25 1.33 1.36 1.29 1.22 1.12 1.10 1.06 0.96 0.81 0.78 0.71 0.80 0.71 0.70 0.65 0.51 0.57 0.52 0.51 0.55

GFSMA_prec_pwat_021.txt.gz
Precipitable_Water
1.71 1.73 1.67 1.70 1.74 1.77 1.70 1.56 1.59 1.54 1.50 1.43 1.42 1.23 1.17 1.12 1.22 1.19 1.23 1.40 1.44 1.64 1.77 1.98 1.92 1.78 1.76 1.71 1.71 1.57 1.57 1.53 1.67 1.68 1.70 1.70 1.49 1.55 1.50 1.47 1.53 1.62 1.57
1.65 1.69 1.73 1.67 1.75 1.71 1.69 1.67 1.58 1.45 1.35 1.35 1.34 1.25 1.11 1.13 1.20 1.13 1.18 1.38 1.38 1.49 1.62 1.87 1.91 1.88 1.74 1.67 1.69 1.68 1.66 1.57 1.63 1.74 1.81 1.70 1.68 1.58 1.48 1.47 1.56 1.63 1.63
1.69 1.73 1.66 1.60 1.64 1.73 1.70 1.69 1.56 1.52 1.31 1.20 1.23 1.15 1.13 1.15 1.10 1.12 1.19 1.35 1.46 1.43 1.51 1.68 1.80 1.81 1.82 1.80 1.73 1.66 1.67 1.70 1.68 1.62 1.67 1.63 1.69 1.64 1.62 1.57 1.47 1.52 1.59
1.73 1.68 1.66 1.66 1.68 1.67 1.62 1.54 1.51 1.45 1.34 1.23 1.11 1.20 1.11 1.14 1.10 1.09 1.12 1.20 1.30 1.46 1.49 1.50 1.68 1.77 1.69 1.70 1.83 1.86 1.86 1.78 1.76 1.81 1.70 1.62 1.61 1.59 1.63 1.56 1.53 1.61 1.68
1.75 1.69 1.76 1.74 1.69 1.59 1.52 1.51 1.48 1.37 1.21 1.17 1.11 1.09 1.13 1.12 1.10 1.09 1.20 1.19 1.22 1.31 1.43 1.45 1.49 1.58 1.66 1.74 1.80 1.85 1.79 1.84 1.86 1.91 1.87 1.85 1.85 1.76 1.68 1.69 1.66 1.60 1.61
1.78 1.89 1.79 1.65 1.71 1.53 1.45 1.49 1.48 1.43 1.28 1.07 1.05 1.09 1.15 1.19 1.13 1.10 1.15 1.23 1.26 1.30 1.35 1.42 1.48 1.53 1.53 1.60 1.69 1.74 1.82 1.78 1.72 1.75 1.80 1.80 1.85 1.87 1.88 1.91 1.89 1.82 1.75
1.74 1.81 1.69 1.68 1.63 1.46 1.49 1.59 1.54 1.37 1.26 1.16 1.12 1.12 1.14 1.19 1.12 1.16 1.20 1.14 1.05 1.09 1.21 1.24 1.42 1.40 1.48 1.47 1.48 1.51 1.61 1.65 1.70 1.75 1.80 1.85 1.89 1.95 1.96 2.00 2.02 2.05 2.01
1.61 1.69 1.67 1.63 1.56 1.52 1.56 1.57 1.51 1.36 1.27 1.18 1.05 1.04 0.93 1.02 1.07 1.08 1.12 1.07 1.03 1.00 0.95 1.05 1.18 1.23 1.28 1.29 1.26 1.25 1.28 1.37 1.45 1.49 1.52 1.60 1.69 1.78 1.86 1.91 1.94 1.98 2.04
1.55 1.56 1.59 1.58 1.52 1.62 1.55 1.55 1.54 1.42 1.26 1.13 1.21 1.07 0.92 0.86 1.04 1.12 1.09 1.07 1.05 1.01 1.02 1.08 1.07 1.08 1.09 1.07 1.00 0.94 0.90 0.98 1.05 1.06 1.12 1.21 1.28 1.37 1.47 1.56 1.60 1.61 1.70
1.52 1.55 1.58 1.55 1.57 1.63 1.58 1.57 1.54 1.45 1.34 1.08 1.21 1.25 1.25 1.23 1.04 1.00 1.18 1.16 1.13 1.07 1.06 1.04 1.07 1.06 1.10 1.06 1.02 0.94 0.87 0.86 0.85 0.84 0.79 0.78 0.78 0.79 0.82 0.85 0.89 0.92 0.95
1.55 1.55 1.55 1.53 1.60 1.62 1.64 1.59 1.49 1.41 1.37 1.18 1.11 1.17 1.16 1.18 1.23 1.07 0.96 1.05 1.19 1.22 1.18 1.13 1.12 1.15 1.18 1.18 1.14 1.07 0.99 0.95 0.94 0.93 0.92 0.89 0.88 0.86 0.81 0.75 0.74 0.74 0.75
1.42 1.48 1.51 1.54 1.61 1.61 1.64 1.61 1.52 1.43 1.35 1.23 1.16 1.21 1.18 1.10 1.08 1.06 1.02 1.05 1.04 1.12 1.20 1.21 1.19 1.19 1.23 1.25 1.23 1.16 1.13 1.09 1.05 1.02 1.03 1.02 1.00 1.01 1.02 0.95 0.88 0.87 0.87
1.27 1.32 1.38 1.46 1.54 1.59 1.65 1.65 1.51 1.41 1.35 1.19 1.11 1.15 1.28 1.26 1.26 1.16 1.09 1.04 1.02 1.09 1.13 1.23 1.22 1.22 1.25 1.31 1.28 1.24 1.21 1.16 1.11 1.07 1.04 1.06 1.09 1.10 1.09 1.09 1.11 1.07 1.04
1.27 1.33 1.36 1.44 1.52 1.60 1.66 1.64 1.54 1.45 1.37 1.27 1.16 1.12 1.18 1.26 1.27 1.24 1.17 1.11 1.01 1.03 1.10 1.08 1.23 1.22 1.29 1.30 1.30 1.27 1.27 1.24 1.18 1.15 1.16 1.14 1.11 1.11 1.10 1.06 1.04 1.09 1.13
1.36 1.31 1.33 1.43 1.54 1.55 1.60 1.60 1.49 1.40 1.35 1.30 1.19 1.20 1.16 1.24 1.24 1.21 1.19 1.20 1.11 0.93 0.94 1.09 1.08 1.25 1.26 1.26 1.28 1.32 1.34 1.36 1.34 1.34 1.34 1.31 1.30 1.29 1.29 1.29 1.28 1.26 1.23
1.36 1.32 1.28 1.39 1.48 1.50 1.58 1.58 1.52 1.46 1.33 1.29 1.24 1.22 1.22 1.26 1.25 1.24 1.18 1.15 1.18 1.14 0.93 1.11 1.15 1.23 1.30 1.32 1.34 1.38 1.41 1.36 1.37 1.38 1.39 1.38 1.37 1.37 1.40 1.42 1.41 1.37 1.35
1.39 1.34 1.30 1.32 1.42 1.43 1.53 1.54 1.55 1.50 1.41 1.33 1.30 1.24 1.27 1.33 1.28 1.30 1.24 1.18 1.15 1.21 1.07 1.12 1.15 1.24 1.27 1.30 1.32 1.38 1.42 1.43 1.43 1.37 1.35 1.34 1.36 1.39 1.40 1.43 1.44 1.41 1.36
1.36 1.36 1.32 1.31 1.38 1.46 1.50 1.49 1.49 1.50 1.39 1.32 1.33 1.34 1.28 1.31 1.27 1.30 1.27 1.16 1.12 1.16 1.15 1.09 1.18 1.15 1.20 1.32 1.36 1.36 1.39 1.38 1.39 1.36 1.35 1.31 1.30 1.32 1.33 1.34 1.33 1.29 1.19
1.29 1.34 1.31 1.24 1.35 1.40 1.43 1.48 1.51 1.53 1.44 1.41 1.43 1.47 1.47 1.40 1.28 1.25 1.26 1.21 1.16 1.16 1.15 1.13 1.14 1.24 1.16 1.25 1.28 1.36 1.37 1.33 1.31 1.35 1.36 1.32 1.30 1.30 1.27 1.20 1.13 1.07 1.02
1.33 1.27 1.30 1.25 1.32 1.39 1.40 1.43 1.46 1.51 1.47 1.47 1.53 1.60 1.58 1.59 1.46 1.32 1.29 1.26 1.24 1.17 1.15 1.13 1.14 1.22 1.19 1.20 1.29 1.21 1.20 1.32 1.26 1.32 1.32 1.27 1.32 1.31 1.23 1.15 1.05 0.98 0.97
1.40 1.25 1.25 1.28 1.24 1.33 1.35 1.37 1.40 1.45 1.48 1.47 1.55 1.61 1.60 1.67 1.61 1.55 1.38 1.34 1.28 1.21 1.17 1.12 1.12 1.20 1.19 1.13 1.10 1.18 1.16 1.24 1.29 1.33 1.28 1.31 1.28 1.26 1.20 1.19 1.07 0.97 0.95
1.46 1.28 1.19 1.23 1.18 1.23 1.29 1.32 1.39 1.42 1.47 1.45 1.46 1.54 1.57 1.64 1.68 1.67 1.55 1.48 1.39 1.24 1.17 1.15 1.13 1.15 1.22 1.23 1.24 1.18 1.17 1.18 1.12 1.41 1.24 1.10 1.23 1.09 1.12 1.09 1.02 0.91 0.91
1.49 1.30 1.18 1.22 1.17 1.19 1.24 1.27 1.36 1.41 1.43 1.46 1.45 1.49 1.53 1.65 1.74 1.71 1.68 1.55 1.43 1.36 1.32 1.29 1.18 1.20 1.24 1.29 1.24 1.18 1.23 1.17 1.13 1.22 1.16 0.94 1.03 0.96 0.95 0.90 0.87 0.79 0.74
1.47 1.40 1.22 1.19 1.18 1.18 1.20 1.23 1.31 1.39 1.45 1.47 1.47 1.49 1.56 1.67 1.76 1.72 1.74 1.61 1.48 1.43 1.29 1.31 1.33 1.34 1.33 1.36 1.22 1.26 1.23 1.24 1.21 1.12 1.09 0.76 0.85 0.77 0.80 0.78 0.77 0.73 0.66
1.55 1.49 1.39 1.24 1.16 1.11 1.16 1.21 1.28 1.39 1.42 1.43 1.50 1.52 1.62 1.71 1.82 1.72 1.74 1.60 1.50 1.41 1.39 1.44 1.43 1.40 1.34 1.27 1.29 1.26 1.13 1.04 0.86 0.82 0.91 0.70 0.68 0.70 0.68 0.67 0.67 0.60 0.53
1.53 1.58 1.51 1.37 1.26 1.20 1.21 1.22 1.30 1.39 1.37 1.40 1.47 1.51 1.65 1.78 1.78 1.78 1.72 1.66 1.42 1.28 1.30 1.34 1.33 1.24 1.26 1.24 1.26 1.21 1.06 0.78 0.70 0.63 0.74 0.58 0.60 0.61 0.47 0.51 0.50 0.46 0.45

GFSMA_prec_pwat_024.txt.gz
Precipitable_Water
1.77 1.75 1.70 1.77 1.79 1.71 1.69 1.73 1.65 1.52 1.47 1.48 1.52 1.27 1.17 1.21 1.23 1.25 1.36 1.25 1.46 1.69 1.79 1.97 1.89 1.72 1.68 1.67 1.65 1.49 1.41 1.44 1.59 1.63 1.66 1.73 1.58 1.62 1.52 1.44 1.44 1.60 1.49
1.69 1.74 1.79 1.72 1.73 1.80 1.94 1.76 1.64 1.58 1.36 1.43 1.37 1.21 1.19 1.23 1.19 1.22 1.28 1.32 1.39 1.50 1.62 1.89 1.91 1.84 1.79 1.65 1.69 1.68 1.67 1.59 1.60 1.82 1.82 1.77 1.73 1.64 1.54 1.45 1.52 1.56 1.58
1.70 1.80 1.71 1.65 1.70 1.93 1.78 1.76 1.68 1.69 1.35 1.26 1.20 1.24 1.25 1.16 1.17 1.22 1.30 1.45 1.47 1.37 1.51 1.70 1.79 1.85 1.81 1.78 1.68 1.67 1.72 1.73 1.63 1.68 1.67 1.70 1.66 1.69 1.68 1.62 1.52 1.48 1.59
1.77 1.73 1.84 1.73 1.75 1.77 1.67 1.63 1.58 1.47 1.36 1.29 1.19 1.19 1.19 1.17 1.17 1.16 1.21 1.37 1.41 1.57 1.45 1.52 1.71 1.76 1.70 1.70 1.76 1.73 1.75 1.74 1.69 1.67 1.71 1.67 1.66 1.62 1.62 1.62 1.57 1.53 1.61
1.69 1.70 1.85 1.84 1.72 1.63 1.57 1.54 1.58 1.42 1.27 1.22 1.12 1.18 1.19 1.16 1.11 1.23 1.25 1.24 1.29 1.44 1.53 1.39 1.47 1.59 1.69 1.69 1.73 1.79 1.81 1.78 1.74 1.76 1.85 1.81 1.76 1.75 1.74 1.70 1.69 1.69 1.63
1.73 1.87 1.93 1.81 1.72 1.62 1.68 1.76 1.61 1.46 1.33 1.09 1.11 1.14 1.20 1.20 1.15 1.18 1.21 1.24 1.26 1.29 1.47 1.53 1.50 1.56 1.52 1.60 1.63 1.68 1.77 1.83 1.75 1.72 1.72 1.77 1.78 1.81 1.81 1.86 1.90 1.90 1.86
1.79 1.80 1.85 1.79 1.68 1.59 1.66 1.65 1.59 1.44 1.33 1.19 1.20 1.14 1.17 1.19 1.14 1.19 1.20 1.12 1.06 1.13 1.21 1.24 1.43 1.57 1.44 1.44 1.43 1.48 1.54 1.61 1.68 1.72 1.76 1.78 1.81 1.84 1.90 1.97 1.95 1.99 2.01
1.70 1.72 1.85 1.77 1.66 1.63 1.66 1.65 1.59 1.46 1.37 1.16 1.18 1.15 1.03 1.07 1.11 1.14 1.14 1.09 1.03 1.02 1.02 1.11 1.23 1.25 1.34 1.44 1.23 1.14 1.20 1.31 1.41 1.48 1.51 1.53 1.59 1.66 1.71 1.78 1.85 1.89 1.92
1.62 1.63 1.67 1.68 1.71 1.61 1.70 1.64 1.58 1.47 1.32 1.15 1.26 1.26 1.05 1.01 1.12 1.20 1.18 1.14 1.13 1.07 1.08 1.10 1.09 1.11 1.08 1.04 1.02 0.89 0.89 0.94 0.96 1.03 1.13 1.18 1.24 1.30 1.32 1.34 1.40 1.47 1.53
1.54 1.58 1.56 1.58 1.60 1.64 1.66 1.67 1.60 1.52 1.39 1.21 1.18 1.21 1.25 1.27 1.09 1.09 1.23 1.26 1.26 1.19 1.15 1.12 1.12 1.12 1.11 1.11 0.97 0.88 0.84 0.84 0.84 0.80 0.77 0.75 0.75 0.78 0.81 0.82 0.82 0.83 0.85
1.53 1.56 1.56 1.63 1.52 1.62 1.65 1.66 1.58 1.47 1.43 1.30 1.15 1.23 1.22 1.22 1.20 1.12 1.09 1.14 1.20 1.21 1.24 1.24 1.25 1.25 1.26 1.25 1.23 1.08 1.01 0.97 0.97 0.98 0.95 0.91 0.88 0.88 0.86 0.82 0.80 0.79 0.77
1.47 1.52 1.54 1.53 1.55 1.60 1.63 1.66 1.65 1.53 1.42 1.29 1.18 1.23 1.21 1.14 1.14 1.14 1.07 1.10 1.12 1.21 1.23 1.25 1.25 1.24 1.30 1.34 1.33 1.22 1.12 1.12 1.07 1.03 1.00 0.99 0.99 0.99 0.99 0.99 0.97 0.97 0.99
1.37 1.39 1.47 1.44 1.52 1.57 1.63 1.64 1.61 1.53 1.44 1.30 1.16 1.15 1.24 1.25 1.25 1.19 1.10 1.09 1.08 1.18 1.18 1.27 1.30 1.28 1.28 1.33 1.37 1.27 1.25 1.17 1.12 1.06 1.02 1.03 1.06 1.09 1.09 1.08 1.06 1.06 1.07
1.38 1.43 1.44 1.43 1.45 1.55 1.61 1.65 1.62 1.55 1.47 1.35 1.22 1.13 1.19 1.27 1.29 1.25 1.15 1.11 1.07 1.12 1.16 1.15 1.28 1.29 1.29 1.32 1.36 1.30 1.24 1.22 1.22 1.25 1.29 1.28 1.26 1.24 1.24 1.26 1.27 1.24 1.22
1.41 1.44 1.40 1.40 1.42 1.50 1.56 1.63 1.59 1.53 1.44 1.37 1.29 1.19 1.16 1.25 1.34 1.31 1.25 1.18 1.08 0.99 1.03 1.22 1.11 1.25 1.29 1.27 1.26 1.28 1.32 1.42 1.35 1.32 1.32 1.31 1.31 1.31 1.31 1.31 1.34 1.38 1.38
1.39 1.43 1.40 1.35 1.39 1.48 1.53 1.56 1.56 1.56 1.45 1.38 1.31 1.27 1.26 1.26 1.36 1.34 1.28 1.23 1.15 1.06 1.01 1.15 1.16 1.23 1.25 1.29 1.36 1.29 1.41 1.39 1.32 1.30 1.34 1.35 1.34 1.35 1.32 1.32 1.35 1.40 1.43
1.39 1.40 1.41 1.33 1.28 1.43 1.51 1.50 1.51 1.50 1.40 1.36 1.35 1.33 1.31 1.31 1.30 1.34 1.32 1.27 1.21 1.15 1.01 1.11 1.22 1.28 1.26 1.29 1.34 1.34 1.41 1.41 1.44 1.41 1.31 1.29 1.29 1.32 1.31 1.32 1.33 1.32 1.32
1.43 1.39 1.40 1.39 1.29 1.31 1.46 1.45 1.43 1.45 1.45 1.39 1.39 1.37 1.37 1.38 1.32 1.32 1.33 1.26 1.26 1.26 1.12 1.02 1.17 1.22 1.25 1.36 1.33 1.37 1.39 1.42 1.42 1.43 1.31 1.25 1.28 1.29 1.31 1.34 1.32 1.29 1.21
1.51 1.41 1.37 1.31 1.28 1.24 1.34 1.43 1.43 1.44 1.47 1.45 1.44 1.43 1.48 1.44 1.33 1.30 1.31 1.27 1.29 1.32 1.24 1.13 1.11 1.27 1.29 1.37 1.34 1.32 1.35 1.39 1.41 1.39 1.35 1.30 1.32 1.29 1.27 1.24 1.21 1.14 1.12
1.59 1.55 1.42 1.29 1.29 1.27 1.31 1.37 1.38 1.40 1.46 1.49 1.50 1.51 1.51 1.50 1.46 1.42 1.36 1.35 1.30 1.28 1.31 1.23 1.16 1.13 1.23 1.35 1.37 1.21 1.25 1.41 1.35 1.37 1.36 1.35 1.34 1.36 1.25 1.15 1.07 1.03 1.00
1.60 1.60 1.57 1.42 1.29 1.30 1.24 1.30 1.31 1.35 1.38 1.43 1.49 1.51 1.56 1.59 1.57 1.57 1.47 1.43 1.44 1.34 1.25 1.29 1.21 1.16 1.13 1.20 1.22 1.26 1.20 1.22 1.24 1.32 1.36 1.36 1.31 1.23 1.20 1.13 1.09 1.08 0.97
1.62 1.62 1.57 1.50 1.29 1.21 1.18 1.16 1.25 1.26 1.33 1.36 1.40 1.46 1.56 1.58 1.57 1.59 1.59 1.54 1.61 1.47 1.35 1.26 1.25 1.19 1.18 1.20 1.27 1.27 1.20 1.12 1.05 1.39 1.29 1.23 1.21 1.06 1.07 1.08 1.06 1.00 0.93
1.66 1.63 1.62 1.58 1.44 1.23 1.16 1.08 1.10 1.19 1.22 1.28 1.35 1.45 1.50 1.57 1.57 1.58 1.61 1.68 1.65 1.63 1.57 1.49 1.32 1.33 1.29 1.36 1.34 1.26 1.22 1.13 1.12 1.27 1.25 1.06 1.03 0.90 0.95 0.93 0.89 0.83 0.74
1.59 1.60 1.61 1.60 1.53 1.35 1.18 1.13 1.13 1.19 1.27 1.31 1.41 1.51 1.54 1.56 1.58 1.57 1.62 1.69 1.72 1.69 1.61 1.52 1.46 1.44 1.52 1.51 1.43 1.34 1.26 1.17 1.21 1.23 1.20 0.84 0.89 0.73 0.79 0.81 0.80 0.73 0.66
1.61 1.58 1.64 1.62 1.54 1.42 1.28 1.18 1.16 1.20 1.26 1.37 1.49 1.57 1.61 1.59 1.62 1.58 1.61 1.66 1.75 1.70 1.73 1.65 1.55 1.56 1.52 1.46 1.39 1.29 1.15 1.07 1.00 1.00 1.04 0.83 0.71 0.68 0.71 0.68 0.66 0.59 0.46
1.62 1.68 1.66 1.67 1.65 1.53 1.41 1.25 1.23 1.23 1.19 1.26 1.44 1.53 1.55 1.60 1.65 1.65 1.64 1.72 1.74 1.71 1.72 1.69 1.53 1.48 1.51 1.38 1.27 1.21 1.18 1.03 0.93 0.71 0.84 0.67 0.58 0.59 0.54 0.56 0.49 0.46 0.45

GFSMA_prec_pwat_027.txt.gz
Precipitable_Water
1.69 1.77 1.74 1.92 1.80 1.82 2.22 1.66 1.60 1.45 1.31 1.82 1.42 1.20 1.28 1.17 1.26 1.49 1.45 1.26 1.42 1.69 1.80 1.93 1.90 1.70 1.61 1.64 1.63 1.41 1.32 1.47 1.55 1.61 1.69 1.74 1.60 1.64 1.59 1.48 1.45 1.52 1.51
1.70 1.87 1.84 1.87 1.78 1.91 1.90 1.70 1.62 1.90 1.44 1.50 1.27 1.19 1.29 1.25 1.12 1.30 1.47 1.32 1.25 1.42 1.61 1.82 1.90 1.74 1.77 1.64 1.68 1.61 1.53 1.43 1.52 1.76 1.80 1.80 1.76 1.64 1.59 1.52 1.49 1.54 1.58
1.67 1.92 1.79 1.68 1.84 1.86 1.71 1.72 1.65 1.89 1.49 1.29 1.15 1.20 1.38 1.22 1.21 1.19 1.48 1.57 1.46 1.33 1.43 1.68 1.76 1.81 1.79 1.65 1.63 1.63 1.63 1.60 1.55 1.51 1.56 1.63 1.66 1.69 1.68 1.66 1.59 1.49 1.52
1.77 1.69 1.84 1.74 2.00 1.71 1.67 1.67 1.60 1.36 1.43 1.34 1.20 1.27 1.20 1.20 1.14 1.15 1.23 1.39 1.62 1.61 1.47 1.47 1.68 1.74 1.69 1.70 1.68 1.68 1.65 1.68 1.61 1.60 1.59 1.63 1.59 1.57 1.57 1.61 1.64 1.58 1.50
1.72 1.73 1.83 1.90 1.75 2.00 1.62 1.57 1.59 1.52 1.36 1.26 1.25 1.19 1.23 1.15 1.30 1.29 1.14 1.30 1.39 1.59 1.56 1.41 1.42 1.58 1.69 1.68 1.66 1.71 1.74 1.77 1.74 1.71 1.76 1.81 1.75 1.75 1.73 1.75 1.74 1.77 1.78
1.67 1.75 1.86 1.87 1.73 1.97 1.64 1.69 1.63 1.46 1.33 1.17 1.19 1.26 1.23 1.16 1.22 1.25 1.25 1.28 1.20 1.30 1.37 1.57 1.44 1.54 1.50 1.59 1.65 1.66 1.69 1.71 1.70 1.68 1.69 1.70 1.74 1.75 1.79 1.81 1.83 1.86 1.88
1.64 1.78 1.90 1.99 1.72 1.68 1.65 1.62 1.59 1.41 1.35 1.30 1.22 1.18 1.14 1.17 1.21 1.20 1.21 1.11 1.06 1.28 1.25 1.30 1.47 1.50 1.57 1.40 1.44 1.49 1.52 1.62 1.68 1.73 1.76 1.76 1.76 1.78 1.80 1.82 1.88 1.93 1.93
1.70 1.90 1.84 1.75 1.76 1.70 1.69 1.58 1.55 1.56 1.30 1.23 1.32 1.23 1.07 1.15 1.13 1.19 1.14 1.06 1.06 1.07 1.05 1.22 1.35 1.44 1.57 1.41 1.28 1.17 1.25 1.34 1.42 1.47 1.47 1.50 1.56 1.60 1.65 1.67 1.69 1.74 1.80
1.64 1.73 1.83 1.76 1.69 1.65 1.77 1.73 1.52 1.49 1.44 1.10 1.31 1.31 1.08 1.08 1.15 1.28 1.18 1.26 1.16 1.11 1.11 1.12 1.17 1.13 1.23 1.15 0.97 0.88 0.89 0.92 0.96 1.03 1.08 1.15 1.20 1.23 1.27 1.27 1.26 1.26 1.28
1.55 1.58 1.61 1.63 1.64 1.58 1.75 1.78 1.57 1.56 1.42 1.20 1.09 1.30 1.40 1.39 1.17 1.09 1.27 1.26 1.22 1.23 1.25 1.35 1.29 1.24 1.18 1.23 1.10 0.98 0.84 0.83 0.82 0.79 0.78 0.76 0.77 0.77 0.76 0.75 0.75 0.76 0.77
1.49 1.53 1.56 1.72 1.56 1.56 1.67 1.66 1.65 1.39 1.45 1.45 1.22 1.19 1.15 1.14 1.28 1.25 1.10 1.19 1.29 1.26 1.30 1.19 1.34 1.36 1.32 1.34 1.36 1.10 1.02 1.00 0.99 0.99 0.95 0.92 0.91 0.90 0.89 0.84 0.80 0.79 0.79
1.48 1.47 1.52 1.55 1.54 1.55 1.59 1.68 1.62 1.52 1.46 1.39 1.32 1.29 1.28 1.20 1.21 1.20 1.15 1.21 1.20 1.27 1.28 1.31 1.31 1.24 1.37 1.38 1.37 1.28 1.10 1.07 1.07 1.05 1.06 1.06 1.08 1.08 1.09 1.08 1.05 1.04 1.03
1.33 1.44 1.42 1.57 1.47 1.48 1.61 1.63 1.68 1.56 1.43 1.37 1.22 1.21 1.29 1.31 1.32 1.26 1.20 1.16 1.14 1.27 1.27 1.29 1.34 1.35 1.33 1.35 1.44 1.37 1.22 1.16 1.13 1.08 1.11 1.19 1.22 1.24 1.25 1.25 1.25 1.24 1.22
1.33 1.45 1.50 1.48 1.49 1.54 1.55 1.62 1.61 1.54 1.47 1.41 1.30 1.15 1.26 1.37 1.40 1.34 1.26 1.20 1.14 1.15 1.21 1.17 1.35 1.30 1.36 1.35 1.40 1.33 1.32 1.24 1.25 1.26 1.28 1.28 1.27 1.27 1.27 1.28 1.30 1.32 1.34
1.37 1.44 1.49 1.45 1.45 1.45 1.56 1.58 1.53 1.54 1.50 1.44 1.38 1.28 1.18 1.33 1.42 1.41 1.37 1.29 1.14 1.06 1.12 1.27 1.18 1.32 1.30 1.35 1.32 1.30 1.29 1.37 1.34 1.28 1.26 1.26 1.26 1.27 1.30 1.30 1.28 1.27 1.30
1.35 1.49 1.40 1.41 1.38 1.37 1.45 1.51 1.51 1.57 1.51 1.45 1.38 1.36 1.28 1.25 1.32 1.37 1.33 1.29 1.23 1.09 1.00 1.21 1.26 1.29 1.29 1.27 1.38 1.26 1.34 1.38 1.34 1.25 1.23 1.23 1.22 1.23 1.25 1.26 1.27 1.31 1.36
1.42 1.34 1.42 1.34 1.33 1.30 1.33 1.44 1.44 1.50 1.49 1.46 1.43 1.37 1.35 1.32 1.30 1.35 1.34 1.26 1.24 1.21 1.07 1.16 1.25 1.33 1.30 1.22 1.34 1.37 1.35 1.37 1.36 1.37 1.38 1.28 1.22 1.24 1.27 1.25 1.27 1.28 1.28
1.42 1.48 1.46 1.43 1.40 1.35 1.31 1.35 1.39 1.38 1.46 1.43 1.42 1.36 1.35 1.38 1.29 1.34 1.33 1.33 1.28 1.31 1.20 1.11 1.23 1.33 1.32 1.36 1.31 1.37 1.36 1.39 1.42 1.43 1.41 1.31 1.25 1.22 1.20 1.22 1.25 1.20 1.17
1.39 1.43 1.48 1.46 1.39 1.36 1.32 1.28 1.35 1.37 1.39 1.44 1.45 1.43 1.39 1.40 1.33 1.25 1.23 1.30 1.32 1.35 1.39 1.24 1.23 1.36 1.37 1.45 1.42 1.47 1.43 1.41 1.36 1.39 1.35 1.35 1.25 1.26 1.33 1.27 1.13 1.02 0.96
1.41 1.47 1.54 1.54 1.48 1.38 1.29 1.23 1.20 1.27 1.32 1.35 1.40 1.45 1.49 1.43 1.38 1.34 1.31 1.26 1.30 1.29 1.38 1.36 1.32 1.25 1.32 1.40 1.41 1.29 1.32 1.38 1.39 1.42 1.41 1.38 1.31 1.33 1.25 1.19 1.05 0.96 0.94
1.53 1.55 1.59 1.63 1.63 1.54 1.35 1.27 1.26 1.26 1.26 1.27 1.35 1.45 1.53 1.55 1.50 1.41 1.34 1.38 1.32 1.28 1.26 1.34 1.35 1.33 1.27 1.28 1.34 1.38 1.37 1.31 1.39 1.40 1.26 1.28 1.35 1.32 1.25 1.13 1.13 1.08 0.95
1.57 1.56 1.54 1.57 1.59 1.63 1.52 1.31 1.26 1.19 1.26 1.31 1.34 1.45 1.51 1.59 1.55 1.48 1.41 1.46 1.46 1.35 1.35 1.34 1.33 1.32 1.33 1.33 1.39 1.36 1.36 1.24 1.10 1.40 1.25 1.21 1.32 1.23 1.19 1.11 1.06 0.99 0.95
1.71 1.60 1.59 1.63 1.60 1.64 1.59 1.43 1.25 1.24 1.20 1.26 1.34 1.40 1.44 1.49 1.51 1.49 1.43 1.45 1.48 1.50 1.49 1.58 1.48 1.45 1.46 1.45 1.45 1.41 1.40 1.32 1.14 1.29 1.23 1.12 1.20 1.06 0.96 0.92 0.87 0.81 0.75
1.67 1.67 1.66 1.65 1.63 1.61 1.62 1.53 1.38 1.27 1.28 1.32 1.34 1.37 1.39 1.35 1.47 1.49 1.46 1.41 1.47 1.50 1.49 1.59 1.68 1.65 1.61 1.62 1.55 1.46 1.46 1.38 1.27 1.22 1.22 1.00 1.02 0.83 0.77 0.78 0.80 0.75 0.66
1.69 1.66 1.72 1.74 1.62 1.60 1.66 1.62 1.54 1.39 1.29 1.29 1.33 1.38 1.41 1.40 1.45 1.45 1.44 1.42 1.45 1.52 1.64 1.63 1.76 1.73 1.70 1.68 1.55 1.47 1.33 1.32 1.09 1.08 1.19 1.02 0.86 0.71 0.63 0.66 0.73 0.68 0.55
1.67 1.74 1.69 1.72 1.72 1.65 1.75 1.72 1.66 1.56 1.33 1.28 1.38 1.42 1.37 1.39 1.47 1.47 1.44 1.45 1.43 1.47 1.59 1.56 1.71 1.72 1.71 1.68 1.55 1.50 1.41 1.31 1.21 1.01 1.08 0.84 0.78 0.66 0.49 0.61 0.60 0.59 0.53

GFSMA_prec_pwat_030.txt.gz
Precipitable_Water
1.80 1.75 1.86 1.93 1.83 1.89 1.70 1.86 1.72 1.45 1.50 1.44 1.29 1.18 1.23 1.27 1.46 1.46 1.46 1.27 1.36 1.60 1.77 1.88 1.75 1.74 1.65 1.65 1.50 1.36 1.44 1.57 1.58 1.63 1.72 1.74 1.64 1.66 1.65 1.54 1.51 1.53 1.51
1.76 1.77 1.75 1.95 1.78 1.82 1.82 1.79 1.63 1.54 1.66 1.41 1.21 1.29 1.26 1.15 1.28 1.38 1.43 1.45 1.25 1.39 1.61 1.81 1.89 1.69 1.78 1.66 1.68 1.57 1.41 1.39 1.50 1.67 1.75 1.76 1.76 1.69 1.65 1.59 1.54 1.57 1.56
1.70 1.79 1.73 1.74 1.95 1.87 1.71 1.68 1.48 1.67 1.45 1.37 1.18 1.30 1.22 1.18 1.09 1.39 1.49 1.53 1.46 1.44 1.47 1.68 1.79 1.80 1.76 1.63 1.65 1.69 1.67 1.60 1.52 1.46 1.53 1.57 1.66 1.65 1.67 1.62 1.66 1.62 1.58
1.74 1.61 1.82 1.77 1.79 1.86 1.60 1.55 1.52 1.79 1.48 1.60 1.26 1.31 1.30 1.18 1.07 1.25 1.41 1.48 1.57 1.60 1.53 1.54 1.65 1.76 1.75 1.75 1.70 1.67 1.64 1.65 1.63 1.58 1.61 1.68 1.60 1.57 1.59 1.62 1.63 1.73 1.71
1.57 1.65 1.74 1.79 1.79 1.94 1.75 1.55 1.53 1.65 1.41 1.29 1.38 1.13 1.25 1.22 1.31 1.27 1.18 1.38 1.42 1.51 1.51 1.53 1.47 1.59 1.69 1.69 1.64 1.63 1.63 1.67 1.70 1.66 1.69 1.77 1.77 1.71 1.71 1.67 1.72 1.74 1.81
1.53 1.56 1.74 1.94 1.77 1.74 1.62 1.61 1.57 1.39 1.28 1.24 1.25 1.22 1.24 1.16 1.29 1.30 1.29 1.42 1.30 1.42 1.48 1.40 1.55 1.58 1.56 1.51 1.59 1.63 1.65 1.70 1.70 1.73 1.71 1.71 1.71 1.72 1.71 1.68 1.67 1.72 1.80
1.54 1.74 1.82 2.02 1.81 1.61 1.60 1.51 1.49 1.49 1.23 1.23 1.13 1.13 1.14 1.11 1.13 1.31 1.23 1.12 1.23 1.40 1.45 1.32 1.40 1.54 1.46 1.50 1.45 1.40 1.47 1.52 1.58 1.62 1.65 1.68 1.69 1.69 1.71 1.76 1.75 1.75 1.77
1.66 1.69 1.72 1.76 1.85 1.75 1.68 1.51 1.55 1.52 1.20 1.26 1.30 1.23 1.10 1.18 1.23 1.26 1.15 1.08 1.11 1.13 1.14 1.32 1.41 1.32 1.38 1.51 1.17 1.15 1.18 1.25 1.30 1.32 1.34 1.37 1.40 1.44 1.46 1.47 1.48 1.49 1.50
1.53 1.72 1.72 1.69 1.84 1.75 1.62 1.62 1.45 1.46 1.25 1.21 1.38 1.31 1.09 1.03 1.14 1.28 1.23 1.25 1.16 1.22 1.20 1.29 1.31 1.30 1.33 1.08 1.01 0.89 0.88 0.91 0.94 0.97 0.98 0.99 1.02 1.08 1.10 1.09 1.05 1.04 1.04
1.45 1.59 1.55 1.63 1.62 1.68 1.58 1.65 1.53 1.50 1.44 1.17 1.10 1.36 1.43 1.40 1.10 1.07 1.27 1.30 1.31 1.22 1.29 1.35 1.37 1.27 1.31 1.29 1.25 1.03 0.90 0.88 0.85 0.83 0.82 0.81 0.82 0.81 0.79 0.75 0.74 0.75 0.75
1.41 1.41 1.58 1.52 1.51 1.49 1.66 1.67 1.55 1.40 1.44 1.38 1.19 1.17 1.24 1.31 1.35 1.25 1.12 1.23 1.32 1.35 1.38 1.32 1.43 1.37 1.39 1.32 1.25 1.19 1.03 1.02 1.02 1.01 1.01 1.00 1.00 0.98 0.95 0.93 0.90 0.89 0.91
1.40 1.43 1.51 1.52 1.50 1.47 1.59 1.66 1.58 1.44 1.43 1.47 1.38 1.31 1.18 1.14 1.24 1.23 1.27 1.25 1.21 1.29 1.35 1.33 1.32 1.34 1.42 1.43 1.37 1.28 1.16 1.07 1.05 1.02 1.00 1.06 1.08 1.13 1.18 1.21 1.21 1.22 1.20
1.30 1.34 1.39 1.51 1.50 1.44 1.54 1.57 1.57 1.49 1.35 1.38 1.32 1.26 1.37 1.44 1.47 1.37 1.27 1.25 1.20 1.28 1.28 1.31 1.35 1.36 1.32 1.42 1.37 1.32 1.24 1.13 1.08 1.04 1.12 1.17 1.16 1.18 1.23 1.26 1.29 1.31 1.33
1.28 1.44 1.44 1.47 1.44 1.47 1.44 1.67 1.56 1.56 1.53 1.33 1.27 1.22 1.28 1.38 1.42 1.33 1.24 1.20 1.13 1.19 1.25 1.22 1.34 1.35 1.32 1.32 1.31 1.31 1.26 1.23 1.15 1.16 1.17 1.17 1.17 1.19 1.19 1.20 1.21 1.22 1.24
1.31 1.37 1.43 1.41 1.41 1.43 1.40 1.45 1.55 1.48 1.51 1.47 1.32 1.22 1.20 1.29 1.38 1.39 1.33 1.24 1.15 1.06 1.12 1.26 1.22 1.29 1.31 1.33 1.31 1.30 1.26 1.22 1.24 1.24 1.23 1.20 1.19 1.19 1.20 1.23 1.26 1.24 1.24
1.20 1.42 1.40 1.41 1.44 1.43 1.43 1.44 1.46 1.45 1.50 1.51 1.44 1.31 1.14 1.14 1.26 1.37 1.33 1.30 1.20 1.08 1.01 1.27 1.28 1.30 1.32 1.35 1.34 1.35 1.30 1.28 1.29 1.29 1.25 1.22 1.20 1.18 1.22 1.25 1.23 1.20 1.23
1.39 1.27 1.53 1.43 1.40 1.40 1.36 1.34 1.37 1.41 1.38 1.45 1.48 1.40 1.29 1.18 1.15 1.29 1.32 1.31 1.24 1.20 1.03 1.15 1.37 1.38 1.33 1.31 1.33 1.35 1.35 1.37 1.33 1.35 1.40 1.34 1.29 1.25 1.20 1.21 1.19 1.19 1.19
1.26 1.41 1.43 1.48 1.43 1.35 1.34 1.30 1.19 1.27 1.37 1.37 1.40 1.40 1.37 1.33 1.22 1.28 1.36 1.25 1.22 1.24 1.17 1.12 1.28 1.37 1.35 1.39 1.39 1.37 1.38 1.43 1.48 1.50 1.50 1.33 1.33 1.29 1.21 1.23 1.21 1.13 1.01
1.34 1.31 1.41 1.41 1.40 1.36 1.30 1.32 1.29 1.22 1.23 1.43 1.46 1.44 1.40 1.36 1.26 1.20 1.25 1.27 1.25 1.29 1.30 1.18 1.22 1.37 1.42 1.47 1.41 1.43 1.44 1.50 1.44 1.44 1.42 1.35 1.36 1.28 1.25 1.20 1.15 1.05 0.91
1.28 1.32 1.34 1.43 1.48 1.43 1.39 1.32 1.32 1.26 1.20 1.23 1.43 1.53 1.48 1.38 1.31 1.28 1.18 1.15 1.23 1.22 1.23 1.23 1.24 1.27 1.40 1.47 1.50 1.38 1.33 1.46 1.43 1.52 1.45 1.46 1.34 1.30 1.23 1.18 1.13 1.04 0.96
1.38 1.40 1.37 1.41 1.49 1.53 1.51 1.44 1.32 1.27 1.24 1.19 1.22 1.41 1.49 1.47 1.38 1.34 1.25 1.19 1.13 1.21 1.24 1.19 1.16 1.27 1.33 1.39 1.41 1.47 1.40 1.41 1.43 1.54 1.50 1.41 1.32 1.34 1.25 1.18 1.12 1.07 1.02
1.56 1.55 1.45 1.46 1.47 1.55 1.61 1.58 1.52 1.34 1.27 1.23 1.20 1.26 1.41 1.43 1.38 1.36 1.36 1.36 1.27 1.13 1.15 1.18 1.17 1.13 1.30 1.40 1.46 1.46 1.44 1.36 1.22 1.50 1.43 1.38 1.39 1.26 1.27 1.25 1.12 1.04 0.96
1.65 1.58 1.60 1.58 1.49 1.53 1.57 1.61 1.62 1.58 1.49 1.36 1.27 1.25 1.26 1.31 1.36 1.35 1.36 1.37 1.34 1.33 1.30 1.28 1.21 1.24 1.27 1.46 1.54 1.50 1.50 1.43 1.33 1.42 1.40 1.30 1.38 1.17 1.16 0.99 0.94 0.86 0.82
1.63 1.64 1.65 1.66 1.64 1.62 1.62 1.61 1.64 1.66 1.62 1.57 1.49 1.38 1.26 1.25 1.34 1.32 1.28 1.28 1.30 1.33 1.33 1.38 1.41 1.47 1.52 1.67 1.70 1.65 1.61 1.56 1.48 1.50 1.50 1.23 1.38 1.20 1.00 0.89 0.80 0.77 0.72
1.76 1.73 1.71 1.72 1.68 1.67 1.77 1.73 1.74 1.73 1.65 1.59 1.62 1.57 1.50 1.43 1.42 1.42 1.33 1.19 1.21 1.31 1.42 1.46 1.54 1.66 1.68 1.64 1.75 1.70 1.58 1.41 1.28 1.27 1.39 1.29 1.29 1.15 0.89 0.77 0.73 0.70 0.64
1.79 1.82 1.68 1.71 1.76 1.73 1.85 1.84 1.86 1.86 1.68 1.62 1.71 1.68 1.63 1.59 1.58 1.50 1.41 1.36 1.28 1.26 1.37 1.38 1.45 1.56 1.63 1.64 1.75 1.81 1.70 1.42 1.34 1.29 1.41 1.29 1.28 1.04 0.72 0.69 0.66 0.67 0.59

GFSMA_prec_pwat_033.txt.gz
Precipitable_Water
1.61 1.81 1.89 1.92 1.89 1.85 1.70 1.63 1.71 1.63 1.49 1.35 1.30 1.28 1.41 1.48 1.47 1.45 1.45 1.41 1.59 1.73 1.89 1.71 1.78 1.69 1.62 1.52 1.40 1.43 1.48 1.51 1.56 1.62 1.68 1.66 1.61 1.64 1.61 1.54 1.56 1.57 1.58
1.74 1.84 1.89 1.85 1.79 1.67 1.58 1.53 1.64 1.42 1.33 1.23 1.15 1.27 1.29 1.33 1.39 1.41 1.46 1.38 1.37 1.49 1.64 1.85 1.76 1.63 1.67 1.63 1.59 1.37 1.30 1.43 1.46 1.56 1.61 1.65 1.65 1.64 1.61 1.58 1.54 1.57 1.59
1.73 1.84 1.78 1.81 1.87 1.72 1.58 1.54 1.61 1.61 1.51 1.38 1.31 1.27 1.18 1.28 1.32 1.36 1.47 1.47 1.48 1.40 1.51 1.72 1.81 1.67 1.68 1.51 1.56 1.56 1.52 1.42 1.39 1.40 1.54 1.53 1.63 1.58 1.58 1.59 1.60 1.63 1.66
1.70 1.83 1.87 1.73 1.72 1.95 1.58 1.60 1.69 1.64 1.57 1.42 1.27 1.34 1.24 1.21 1.25 1.27 1.33 1.44 1.52 1.49 1.50 1.50 1.65 1.77 1.67 1.60 1.57 1.55 1.52 1.54 1.60 1.56 1.57 1.63 1.56 1.54 1.50 1.51 1.61 1.61 1.73
1.63 1.69 1.83 1.85 1.80 1.73 1.57 1.61 1.63 1.60 1.40 1.35 1.32 1.23 1.23 1.28 1.19 1.29 1.32 1.38 1.37 1.44 1.46 1.52 1.45 1.52 1.60 1.65 1.59 1.59 1.58 1.61 1.66 1.63 1.60 1.66 1.69 1.68 1.69 1.69 1.67 1.68 1.71
1.47 1.70 1.83 2.01 1.75 1.62 1.56 1.63 1.57 1.43 1.29 1.21 1.18 1.17 1.18 1.19 1.34 1.27 1.37 1.37 1.41 1.47 1.39 1.25 1.44 1.50 1.51 1.49 1.60 1.64 1.64 1.66 1.66 1.62 1.60 1.60 1.61 1.62 1.65 1.66 1.65 1.67 1.76
1.49 1.62 1.74 1.85 1.88 1.57 1.59 1.53 1.41 1.32 1.15 1.28 1.20 1.16 1.04 1.14 1.22 1.25 1.32 1.23 1.23 1.28 1.32 1.33 1.39 1.38 1.43 1.49 1.45 1.39 1.41 1.42 1.47 1.52 1.55 1.58 1.59 1.57 1.60 1.63 1.63 1.62 1.59
1.55 1.59 1.66 1.82 1.78 1.68 1.61 1.48 1.50 1.31 1.17 1.29 1.18 1.20 1.02 1.08 1.27 1.27 1.30 1.26 1.31 1.37 1.34 1.33 1.32 1.27 1.34 1.33 1.14 1.13 1.15 1.17 1.26 1.30 1.31 1.33 1.34 1.37 1.37 1.37 1.35 1.35 1.34
1.54 1.53 1.60 1.65 1.75 1.77 1.58 1.51 1.45 1.36 1.08 1.26 1.39 1.29 1.04 0.94 1.11 1.26 1.26 1.21 1.28 1.30 1.36 1.46 1.48 1.42 1.36 1.27 1.13 1.04 1.01 0.98 1.04 1.06 1.08 1.08 1.07 1.07 1.06 1.02 0.94 0.88 0.86
1.51 1.44 1.46 1.59 1.63 1.69 1.52 1.55 1.41 1.42 1.29 1.14 1.28 1.40 1.37 1.37 1.04 1.02 1.25 1.28 1.35 1.27 1.34 1.38 1.39 1.43 1.41 1.28 1.24 1.05 0.94 0.90 0.88 0.87 0.84 0.82 0.82 0.82 0.82 0.81 0.80 0.78 0.79
1.37 1.37 1.51 1.51 1.50 1.54 1.54 1.58 1.51 1.40 1.44 1.26 1.12 1.18 1.30 1.37 1.35 1.25 1.06 1.17 1.30 1.32 1.33 1.34 1.38 1.41 1.36 1.37 1.31 1.19 1.07 0.97 0.99 1.01 1.00 0.99 0.99 0.99 1.00 1.01 1.02 1.03 1.04
1.29 1.37 1.43 1.48 1.48 1.40 1.44 1.57 1.54 1.38 1.39 1.44 1.27 1.26 1.22 1.20 1.20 1.21 1.17 1.20 1.16 1.24 1.31 1.31 1.33 1.34 1.35 1.33 1.29 1.23 1.19 1.14 1.00 0.94 1.00 1.10 1.16 1.19 1.21 1.19 1.19 1.20 1.22
1.21 1.29 1.42 1.42 1.46 1.40 1.40 1.51 1.52 1.46 1.34 1.37 1.35 1.24 1.34 1.33 1.38 1.32 1.27 1.19 1.14 1.24 1.24 1.30 1.32 1.32 1.35 1.33 1.27 1.28 1.23 1.20 1.08 1.01 1.13 1.16 1.17 1.16 1.16 1.18 1.20 1.20 1.22
1.25 1.34 1.38 1.48 1.40 1.46 1.37 1.40 1.45 1.47 1.44 1.28 1.31 1.27 1.26 1.36 1.41 1.35 1.24 1.17 1.08 1.16 1.21 1.19 1.34 1.32 1.36 1.35 1.36 1.31 1.26 1.25 1.21 1.13 1.16 1.18 1.18 1.18 1.16 1.16 1.19 1.19 1.16
1.25 1.31 1.41 1.44 1.46 1.44 1.40 1.34 1.41 1.43 1.49 1.41 1.20 1.20 1.19 1.28 1.34 1.34 1.26 1.27 1.13 1.02 1.10 1.23 1.23 1.37 1.35 1.37 1.37 1.34 1.31 1.26 1.23 1.24 1.22 1.20 1.21 1.20 1.18 1.20 1.22 1.21 1.17
1.23 1.27 1.28 1.35 1.40 1.42 1.39 1.32 1.33 1.47 1.45 1.44 1.36 1.24 1.11 1.20 1.27 1.34 1.31 1.24 1.23 1.13 1.03 1.29 1.30 1.36 1.41 1.38 1.36 1.32 1.32 1.32 1.28 1.25 1.25 1.24 1.22 1.18 1.19 1.17 1.20 1.20 1.13
1.23 1.22 1.30 1.37 1.37 1.41 1.47 1.37 1.20 1.29 1.39 1.40 1.44 1.38 1.27 1.15 1.17 1.26 1.33 1.29 1.18 1.12 0.97 1.12 1.32 1.41 1.39 1.36 1.37 1.39 1.39 1.39 1.35 1.30 1.33 1.34 1.29 1.28 1.25 1.22 1.20 1.19 1.14
1.20 1.26 1.29 1.39 1.48 1.42 1.39 1.36 1.21 1.16 1.22 1.31 1.38 1.41 1.34 1.36 1.17 1.15 1.25 1.23 1.22 1.22 1.09 1.00 1.21 1.32 1.35 1.42 1.41 1.42 1.43 1.41 1.38 1.37 1.40 1.41 1.41 1.33 1.27 1.25 1.22 1.13 1.06
1.10 1.16 1.37 1.36 1.32 1.38 1.39 1.36 1.29 1.16 1.14 1.16 1.28 1.35 1.37 1.37 1.25 1.21 1.14 1.22 1.24 1.22 1.19 1.08 1.08 1.22 1.28 1.39 1.39 1.44 1.46 1.44 1.48 1.50 1.52 1.46 1.42 1.36 1.33 1.27 1.18 1.11 1.02
1.16 1.22 1.21 1.35 1.44 1.41 1.40 1.41 1.35 1.26 1.17 1.14 1.20 1.27 1.34 1.35 1.27 1.24 1.20 1.12 1.19 1.16 1.15 1.12 1.09 1.15 1.20 1.29 1.37 1.36 1.39 1.49 1.42 1.54 1.51 1.49 1.48 1.45 1.42 1.31 1.16 1.11 1.03
1.22 1.23 1.23 1.26 1.36 1.44 1.46 1.43 1.42 1.33 1.26 1.20 1.17 1.18 1.25 1.27 1.31 1.30 1.23 1.16 1.06 1.09 1.08 1.07 1.07 1.11 1.13 1.18 1.21 1.39 1.39 1.45 1.50 1.57 1.50 1.52 1.51 1.46 1.49 1.51 1.30 1.10 1.08
1.28 1.30 1.25 1.23 1.30 1.41 1.49 1.50 1.53 1.49 1.48 1.38 1.24 1.19 1.22 1.24 1.25 1.25 1.27 1.27 1.22 1.03 1.05 1.04 1.03 1.03 1.11 1.18 1.27 1.34 1.40 1.39 1.31 1.59 1.51 1.46 1.57 1.50 1.48 1.49 1.32 1.11 1.03
1.53 1.42 1.38 1.39 1.35 1.41 1.50 1.58 1.62 1.63 1.60 1.57 1.53 1.47 1.40 1.36 1.29 1.26 1.28 1.31 1.31 1.29 1.22 1.15 1.06 1.06 1.12 1.24 1.32 1.34 1.38 1.41 1.40 1.54 1.56 1.39 1.57 1.51 1.58 1.51 1.32 1.01 0.89
1.66 1.57 1.53 1.53 1.54 1.51 1.56 1.62 1.69 1.71 1.68 1.67 1.69 1.68 1.60 1.53 1.54 1.49 1.35 1.30 1.33 1.31 1.32 1.33 1.27 1.24 1.28 1.37 1.43 1.46 1.45 1.50 1.58 1.65 1.66 1.36 1.48 1.48 1.54 1.46 1.20 0.96 0.82
1.69 1.75 1.73 1.68 1.63 1.63 1.72 1.78 1.81 1.78 1.73 1.73 1.82 1.83 1.80 1.73 1.74 1.71 1.63 1.52 1.42 1.36 1.45 1.47 1.47 1.43 1.40 1.51 1.61 1.61 1.47 1.42 1.42 1.52 1.68 1.50 1.41 1.45 1.48 1.40 1.19 0.98 0.76
1.67 1.71 1.78 1.83 1.76 1.67 1.81 1.87 1.91 1.89 1.76 1.79 1.88 1.87 1.87 1.86 1.89 1.90 1.82 1.72 1.56 1.50 1.53 1.49 1.48 1.50 1.49 1.50 1.58 1.58 1.58 1.44 1.43 1.47 1.69 1.45 1.35 1.47 1.36 1.42 1.19 0.96 0.75

GFSMA_prec_pwat_036.txt.gz
Precipitable_Water
1.69 1.79 1.83 1.73 1.70 1.69 1.65 1.65 1.60 1.59 1.41 1.35 1.34 1.34 1.38 1.42 1.40 1.45 1.51 1.58 1.76 1.82 1.85 1.64 1.71 1.52 1.44 1.39 1.41 1.45 1.51 1.54 1.58 1.57 1.59 1.56 1.54 1.59 1.54 1.48 1.48 1.56 1.59
1.74 1.74 1.81 1.77 1.67 1.63 1.59 1.65 1.53 1.35 1.29 1.30 1.24 1.33 1.24 1.32 1.41 1.35 1.39 1.44 1.46 1.61 1.76 1.75 1.71 1.64 1.63 1.50 1.35 1.32 1.40 1.47 1.48 1.56 1.59 1.62 1.59 1.54 1.49 1.45 1.40 1.44 1.56
1.73 1.74 1.70 1.72 1.83 1.61 1.57 1.67 1.65 1.53 1.33 1.28 1.32 1.35 1.29 1.28 1.34 1.32 1.35 1.45 1.47 1.47 1.60 1.80 1.72 1.62 1.56 1.53 1.54 1.42 1.33 1.30 1.33 1.38 1.54 1.55 1.59 1.57 1.47 1.46 1.48 1.57 1.58
1.68 1.74 1.69 1.67 1.80 1.72 1.66 1.72 1.69 1.47 1.39 1.33 1.27 1.27 1.21 1.20 1.26 1.25 1.36 1.45 1.46 1.46 1.54 1.57 1.75 1.67 1.71 1.61 1.60 1.52 1.54 1.53 1.55 1.49 1.53 1.61 1.53 1.49 1.47 1.49 1.60 1.60 1.64
1.58 1.65 1.75 1.75 1.72 1.70 1.59 1.66 1.66 1.48 1.36 1.33 1.29 1.22 1.25 1.22 1.26 1.24 1.32 1.29 1.38 1.40 1.46 1.49 1.52 1.66 1.70 1.71 1.62 1.59 1.57 1.54 1.58 1.57 1.53 1.58 1.64 1.64 1.65 1.64 1.61 1.61 1.64
1.54 1.55 1.75 1.83 1.74 1.64 1.61 1.57 1.51 1.34 1.22 1.19 1.19 1.17 1.24 1.30 1.24 1.25 1.28 1.28 1.32 1.35 1.29 1.34 1.44 1.50 1.53 1.50 1.59 1.62 1.61 1.62 1.65 1.65 1.63 1.60 1.59 1.60 1.61 1.64 1.63 1.61 1.63
1.53 1.57 1.64 1.79 1.76 1.55 1.56 1.51 1.46 1.26 1.17 1.26 1.16 1.06 1.10 1.22 1.26 1.31 1.37 1.30 1.24 1.26 1.23 1.29 1.28 1.32 1.41 1.46 1.42 1.38 1.38 1.40 1.44 1.49 1.56 1.58 1.55 1.57 1.57 1.60 1.60 1.58 1.55
1.54 1.60 1.65 1.69 1.74 1.56 1.61 1.46 1.42 1.19 1.21 1.28 1.13 1.07 0.95 1.11 1.26 1.30 1.36 1.33 1.34 1.36 1.35 1.30 1.27 1.21 1.28 1.28 1.06 1.08 1.15 1.14 1.21 1.29 1.33 1.33 1.35 1.37 1.38 1.39 1.36 1.32 1.27
1.58 1.58 1.55 1.61 1.72 1.68 1.53 1.47 1.39 1.23 1.08 1.26 1.34 1.14 0.97 0.92 1.06 1.23 1.31 1.36 1.36 1.35 1.39 1.40 1.39 1.36 1.30 1.26 1.13 1.06 1.05 1.03 1.05 1.09 1.13 1.14 1.13 1.14 1.09 1.00 0.91 0.84 0.80
1.53 1.52 1.46 1.50 1.59 1.71 1.59 1.52 1.43 1.30 1.21 1.12 1.32 1.46 1.39 1.28 1.02 0.97 1.19 1.24 1.36 1.35 1.36 1.41 1.39 1.40 1.38 1.34 1.25 1.12 1.03 0.97 0.92 0.88 0.86 0.84 0.84 0.84 0.82 0.82 0.83 0.86 0.89
1.48 1.44 1.44 1.39 1.45 1.58 1.60 1.55 1.39 1.39 1.34 1.19 1.24 1.34 1.36 1.39 1.30 1.13 0.99 1.08 1.26 1.32 1.38 1.41 1.40 1.37 1.38 1.31 1.24 1.16 1.10 1.01 0.92 0.94 0.95 0.96 0.97 1.01 1.05 1.07 1.09 1.12 1.16
1.32 1.39 1.39 1.38 1.44 1.47 1.50 1.54 1.54 1.40 1.41 1.38 1.25 1.24 1.28 1.24 1.20 1.21 1.10 1.10 1.09 1.22 1.29 1.35 1.35 1.36 1.36 1.29 1.28 1.20 1.16 1.12 0.97 0.94 1.03 1.10 1.13 1.14 1.16 1.16 1.17 1.18 1.21
1.24 1.28 1.39 1.38 1.41 1.44 1.45 1.52 1.54 1.37 1.37 1.37 1.36 1.28 1.30 1.24 1.30 1.27 1.20 1.12 1.07 1.18 1.19 1.26 1.27 1.33 1.37 1.36 1.34 1.26 1.24 1.21 1.15 1.01 1.09 1.12 1.14 1.13 1.13 1.14 1.18 1.22 1.22
1.21 1.30 1.37 1.41 1.42 1.47 1.44 1.45 1.52 1.50 1.45 1.33 1.37 1.37 1.30 1.32 1.36 1.35 1.25 1.16 1.05 1.11 1.18 1.14 1.28 1.31 1.33 1.33 1.35 1.32 1.27 1.23 1.20 1.12 1.08 1.12 1.13 1.13 1.12 1.13 1.13 1.18 1.19
1.24 1.31 1.36 1.40 1.41 1.40 1.42 1.40 1.39 1.45 1.49 1.43 1.29 1.37 1.30 1.31 1.35 1.34 1.30 1.27 1.12 0.95 1.01 1.19 1.19 1.35 1.37 1.38 1.35 1.34 1.30 1.29 1.23 1.18 1.19 1.18 1.15 1.13 1.10 1.11 1.11 1.15 1.18
1.14 1.23 1.32 1.40 1.44 1.45 1.44 1.38 1.36 1.40 1.49 1.46 1.40 1.22 1.24 1.23 1.24 1.29 1.31 1.25 1.20 1.07 0.95 1.16 1.25 1.37 1.42 1.44 1.44 1.41 1.36 1.36 1.33 1.27 1.25 1.26 1.25 1.20 1.13 1.15 1.15 1.14 1.15
1.15 1.17 1.29 1.32 1.36 1.39 1.44 1.42 1.34 1.32 1.34 1.40 1.45 1.36 1.19 1.13 1.11 1.18 1.22 1.23 1.18 1.14 0.98 1.07 1.23 1.32 1.35 1.37 1.39 1.43 1.41 1.36 1.37 1.38 1.33 1.37 1.40 1.42 1.36 1.30 1.22 1.19 1.11
1.14 1.24 1.26 1.30 1.31 1.38 1.45 1.42 1.36 1.32 1.21 1.29 1.33 1.35 1.28 1.30 1.13 1.09 1.14 1.13 1.17 1.19 1.06 0.93 1.02 1.14 1.18 1.30 1.34 1.36 1.38 1.42 1.40 1.43 1.45 1.41 1.47 1.50 1.50 1.45 1.41 1.31 1.14
1.15 1.23 1.34 1.26 1.27 1.34 1.41 1.42 1.36 1.30 1.24 1.13 1.18 1.28 1.27 1.31 1.26 1.21 1.09 1.11 1.14 1.16 1.16 1.08 1.00 1.13 1.19 1.26 1.24 1.33 1.39 1.46 1.52 1.49 1.47 1.45 1.44 1.49 1.52 1.53 1.49 1.37 1.18
1.12 1.12 1.20 1.29 1.32 1.33 1.37 1.38 1.38 1.34 1.29 1.24 1.17 1.16 1.17 1.21 1.23 1.28 1.30 1.18 1.10 1.11 1.14 1.10 1.08 1.12 1.17 1.26 1.28 1.20 1.26 1.44 1.45 1.53 1.49 1.47 1.47 1.52 1.56 1.60 1.53 1.46 1.20
1.15 1.14 1.11 1.19 1.27 1.33 1.41 1.40 1.40 1.34 1.33 1.34 1.34 1.29 1.23 1.21 1.18 1.18 1.19 1.23 1.25 1.17 1.10 1.09 1.06 1.07 1.08 1.13 1.12 1.23 1.22 1.31 1.47 1.56 1.52 1.50 1.53 1.53 1.59 1.64 1.59 1.58 1.38
1.15 1.17 1.12 1.10 1.11 1.20 1.35 1.42 1.48 1.46 1.46 1.44 1.38 1.42 1.42 1.38 1.30 1.26 1.26 1.23 1.19 1.15 1.12 1.07 1.04 1.02 1.05 1.12 1.20 1.20 1.23 1.23 1.20 1.56 1.52 1.48 1.58 1.48 1.53 1.61 1.64 1.66 1.59
1.24 1.17 1.16 1.13 1.13 1.23 1.32 1.38 1.45 1.51 1.54 1.55 1.55 1.55 1.55 1.60 1.60 1.54 1.47 1.44 1.40 1.31 1.31 1.21 1.06 1.03 1.02 1.09 1.16 1.20 1.26 1.30 1.29 1.42 1.53 1.37 1.56 1.44 1.49 1.60 1.66 1.68 1.66
1.54 1.46 1.38 1.35 1.30 1.33 1.42 1.47 1.54 1.60 1.60 1.63 1.67 1.68 1.66 1.66 1.69 1.68 1.69 1.64 1.62 1.59 1.53 1.47 1.31 1.18 1.18 1.18 1.17 1.18 1.19 1.30 1.39 1.43 1.53 1.30 1.50 1.49 1.59 1.56 1.64 1.68 1.60
1.65 1.66 1.70 1.64 1.56 1.55 1.65 1.67 1.69 1.70 1.68 1.69 1.75 1.78 1.78 1.76 1.84 1.88 1.80 1.72 1.70 1.66 1.85 1.86 1.82 1.73 1.60 1.58 1.44 1.37 1.24 1.18 1.14 1.33 1.41 1.38 1.40 1.51 1.61 1.47 1.59 1.62 1.57
1.55 1.65 1.65 1.73 1.79 1.76 1.82 1.82 1.81 1.80 1.70 1.74 1.81 1.83 1.89 1.91 1.97 1.99 1.93 1.89 1.74 1.74 1.89 1.90 1.90 1.94 1.96 1.90 1.85 1.71 1.50 1.24 1.19 1.22 1.45 1.31 1.37 1.48 1.43 1.50 1.56 1.59 1.55

GFSMA_prec_pwat_042.txt.gz
Precipitable_Water
1.76 1.76 1.69 1.67 1.66 1.71 1.73 1.58 1.49 1.32 1.29 1.30 1.31 1.40 1.47 1.53 1.56 1.51 1.65 1.82 1.91 1.87 1.55 1.55 1.54 1.48 1.39 1.37 1.45 1.47 1.46 1.44 1.43 1.45 1.47 1.47 1.42 1.44 1.40 1.42 1.44 1.49 1.55
1.84 1.84 1.81 1.67 1.60 1.70 1.74 1.66 1.50 1.33 1.28 1.22 1.21 1.33 1.40 1.44 1.49 1.53 1.62 1.67 1.78 1.85 1.79 1.64 1.52 1.50 1.42 1.36 1.35 1.38 1.44 1.45 1.46 1.50 1.57 1.56 1.50 1.50 1.44 1.46 1.54 1.62 1.63
1.77 1.78 1.76 1.83 1.65 1.71 1.66 1.65 1.51 1.35 1.26 1.28 1.19 1.27 1.40 1.44 1.39 1.47 1.55 1.64 1.66 1.78 1.88 1.81 1.63 1.58 1.52 1.42 1.39 1.35 1.33 1.35 1.35 1.35 1.43 1.49 1.45 1.49 1.50 1.44 1.50 1.60 1.65
1.80 1.79 1.75 1.72 1.67 1.67 1.66 1.60 1.52 1.31 1.26 1.38 1.17 1.19 1.30 1.35 1.35 1.35 1.40 1.45 1.50 1.58 1.74 1.79 1.75 1.69 1.65 1.65 1.65 1.52 1.41 1.41 1.42 1.41 1.42 1.63 1.63 1.63 1.54 1.58 1.58 1.57 1.62
1.76 1.82 1.81 1.77 1.76 1.65 1.64 1.62 1.53 1.41 1.27 1.29 1.18 1.19 1.22 1.26 1.30 1.32 1.36 1.40 1.42 1.41 1.47 1.60 1.63 1.65 1.64 1.70 1.63 1.59 1.58 1.55 1.55 1.59 1.59 1.54 1.54 1.56 1.59 1.56 1.56 1.56 1.57
1.74 1.79 1.86 1.85 1.77 1.60 1.61 1.56 1.36 1.28 1.26 1.19 1.18 1.18 1.16 1.19 1.30 1.25 1.26 1.25 1.23 1.22 1.32 1.41 1.52 1.51 1.51 1.50 1.51 1.55 1.59 1.59 1.56 1.57 1.60 1.59 1.57 1.51 1.51 1.53 1.54 1.55 1.54
1.70 1.67 1.69 1.73 1.77 1.54 1.53 1.51 1.39 1.17 1.18 1.18 1.08 1.08 1.08 1.15 1.22 1.27 1.29 1.25 1.27 1.21 1.24 1.23 1.25 1.37 1.38 1.44 1.36 1.27 1.33 1.36 1.36 1.37 1.38 1.43 1.44 1.43 1.39 1.38 1.36 1.35 1.32
1.64 1.67 1.65 1.63 1.67 1.57 1.55 1.48 1.42 1.25 1.24 1.29 1.09 1.05 0.95 1.05 1.20 1.27 1.30 1.30 1.31 1.33 1.29 1.30 1.28 1.20 1.23 1.13 1.08 1.03 1.07 1.09 1.12 1.18 1.21 1.25 1.25 1.23 1.23 1.22 1.14 1.01 0.87
1.55 1.64 1.71 1.69 1.59 1.60 1.50 1.48 1.38 1.18 1.14 1.27 1.22 1.07 0.93 0.88 1.05 1.21 1.24 1.31 1.34 1.32 1.33 1.35 1.35 1.25 1.21 1.20 1.10 1.04 1.04 1.02 1.02 1.06 1.10 1.11 1.08 1.05 0.99 0.91 0.80 0.83 0.88
1.51 1.55 1.58 1.67 1.60 1.59 1.53 1.52 1.43 1.30 1.25 1.18 1.27 1.28 1.21 1.13 0.94 0.90 1.14 1.22 1.27 1.26 1.26 1.30 1.32 1.32 1.31 1.29 1.24 1.16 1.08 1.02 1.01 0.99 0.97 0.91 0.89 0.87 0.87 0.89 0.93 0.98 1.03
1.46 1.48 1.49 1.56 1.58 1.62 1.60 1.58 1.47 1.40 1.36 1.24 1.24 1.27 1.26 1.21 1.17 1.01 0.93 1.03 1.15 1.21 1.27 1.27 1.30 1.34 1.35 1.35 1.31 1.24 1.11 1.02 0.94 0.96 0.96 0.97 0.98 1.00 1.00 1.00 1.02 1.05 1.08
1.33 1.38 1.43 1.48 1.56 1.57 1.56 1.58 1.57 1.45 1.41 1.35 1.26 1.28 1.27 1.19 1.13 1.08 1.00 1.02 1.01 1.10 1.23 1.27 1.26 1.31 1.38 1.37 1.35 1.31 1.24 1.18 1.08 1.07 1.12 1.14 1.16 1.18 1.14 1.10 1.10 1.11 1.16
1.11 1.18 1.29 1.38 1.44 1.51 1.55 1.59 1.53 1.51 1.43 1.38 1.32 1.26 1.26 1.22 1.27 1.20 1.11 1.06 1.02 1.11 1.14 1.23 1.25 1.30 1.35 1.40 1.36 1.35 1.29 1.24 1.22 1.20 1.11 1.17 1.19 1.20 1.25 1.30 1.31 1.33 1.31
1.04 1.21 1.26 1.32 1.39 1.49 1.51 1.57 1.51 1.47 1.55 1.46 1.39 1.39 1.33 1.24 1.24 1.22 1.15 1.10 1.02 1.06 1.13 1.15 1.33 1.36 1.37 1.37 1.32 1.32 1.32 1.30 1.25 1.23 1.22 1.16 1.17 1.22 1.27 1.30 1.34 1.34 1.37
1.10 1.22 1.29 1.29 1.36 1.42 1.51 1.51 1.51 1.43 1.45 1.49 1.39 1.39 1.39 1.41 1.36 1.30 1.27 1.25 1.12 0.94 0.96 1.10 1.14 1.31 1.35 1.37 1.37 1.37 1.35 1.35 1.35 1.29 1.28 1.25 1.22 1.24 1.28 1.31 1.33 1.35 1.39
1.17 1.20 1.24 1.28 1.30 1.37 1.43 1.49 1.47 1.49 1.43 1.41 1.46 1.42 1.37 1.40 1.43 1.37 1.31 1.29 1.24 1.10 0.93 1.07 1.09 1.19 1.25 1.28 1.36 1.39 1.41 1.42 1.42 1.40 1.34 1.34 1.31 1.29 1.31 1.32 1.33 1.34 1.41
1.20 1.15 1.20 1.23 1.27 1.31 1.35 1.39 1.42 1.44 1.39 1.36 1.36 1.36 1.34 1.38 1.33 1.38 1.36 1.30 1.21 1.18 1.01 1.06 1.15 1.20 1.17 1.16 1.21 1.32 1.38 1.39 1.44 1.47 1.50 1.45 1.39 1.36 1.33 1.33 1.37 1.42 1.43
1.18 1.11 1.16 1.17 1.22 1.28 1.31 1.32 1.30 1.38 1.38 1.34 1.33 1.31 1.27 1.35 1.28 1.29 1.29 1.20 1.16 1.17 1.08 0.97 1.07 1.10 1.15 1.24 1.25 1.24 1.29 1.36 1.39 1.42 1.45 1.50 1.49 1.46 1.42 1.38 1.36 1.40 1.43
1.12 1.11 1.10 1.05 1.08 1.16 1.24 1.31 1.33 1.32 1.32 1.36 1.39 1.35 1.31 1.31 1.25 1.28 1.28 1.22 1.16 1.12 1.06 0.98 0.95 1.06 1.08 1.14 1.15 1.22 1.25 1.29 1.32 1.34 1.37 1.40 1.45 1.49 1.47 1.44 1.39 1.37 1.41
1.15 1.11 1.09 1.06 1.04 1.08 1.17 1.23 1.29 1.30 1.30 1.29 1.28 1.28 1.31 1.28 1.24 1.25 1.22 1.21 1.22 1.19 1.20 1.15 1.07 1.05 1.07 1.10 1.14 1.07 1.07 1.21 1.21 1.30 1.32 1.35 1.40 1.43 1.45 1.46 1.48 1.45 1.41
1.14 1.13 1.11 1.08 1.09 1.08 1.07 1.15 1.18 1.19 1.22 1.24 1.27 1.27 1.27 1.24 1.20 1.21 1.18 1.10 1.09 1.06 1.06 1.02 0.99 1.00 0.94 0.96 0.93 1.01 1.02 1.06 1.11 1.22 1.22 1.27 1.32 1.36 1.43 1.50 1.54 1.57 1.56
1.16 1.16 1.13 1.07 1.02 1.03 1.07 1.07 1.14 1.17 1.19 1.18 1.14 1.20 1.27 1.29 1.30 1.31 1.31 1.34 1.38 1.28 1.27 1.27 1.23 1.22 1.26 1.32 1.36 1.32 1.33 1.27 1.13 1.40 1.27 1.22 1.36 1.30 1.39 1.46 1.54 1.61 1.68
1.13 1.12 1.11 1.09 1.03 1.03 1.03 1.06 1.11 1.13 1.17 1.19 1.22 1.26 1.30 1.39 1.45 1.51 1.57 1.62 1.67 1.74 1.78 1.73 1.58 1.59 1.60 1.73 1.73 1.65 1.65 1.60 1.53 1.69 1.72 1.55 1.65 1.47 1.53 1.56 1.54 1.54 1.64
1.10 1.11 1.12 1.11 1.08 1.07 1.07 1.07 1.12 1.20 1.21 1.22 1.27 1.33 1.38 1.42 1.50 1.54 1.56 1.56 1.61 1.70 1.77 1.83 1.83 1.81 1.88 1.93 1.89 1.82 1.78 1.74 1.71 1.76 1.82 1.50 1.70 1.62 1.79 1.79 1.70 1.59 1.58
1.15 1.14 1.17 1.16 1.14 1.14 1.19 1.19 1.25 1.29 1.29 1.30 1.39 1.45 1.48 1.50 1.60 1.66 1.65 1.66 1.72 1.82 2.03 2.04 2.02 2.02 2.01 1.99 2.01 1.93 1.70 1.57 1.43 1.49 1.68 1.54 1.54 1.61 1.73 1.76 1.85 1.91 1.72
1.49 1.56 1.54 1.56 1.57 1.54 1.60 1.60 1.63 1.61 1.52 1.52 1.61 1.65 1.70 1.73 1.83 1.89 1.84 1.82 1.73 1.81 1.91 1.96 1.99 2.02 2.03 2.00 2.02 1.97 1.86 1.64 1.56 1.48 1.66 1.59 1.62 1.69 1.53 1.66 1.73 1.81 1.86

GFSMA_prec_pwat_045.txt.gz
Precipitable_Water
1.80 1.75 1.72 1.69 1.73 1.84 1.68 1.57 1.46 1.35 1.33 1.31 1.39 1.53 1.64 1.62 1.53 1.64 1.81 1.87 1.81 1.60 1.53 1.54 1.57 1.44 1.38 1.43 1.51 1.47 1.47 1.44 1.43 1.48 1.50 1.49 1.43 1.42 1.42 1.47 1.54 1.56 1.56
1.88 1.82 1.82 1.69 1.76 1.81 1.74 1.66 1.42 1.33 1.28 1.27 1.34 1.45 1.51 1.57 1.58 1.61 1.63 1.80 1.83 1.78 1.70 1.54 1.52 1.44 1.40 1.35 1.34 1.39 1.45 1.45 1.44 1.45 1.49 1.47 1.44 1.51 1.47 1.42 1.50 1.62 1.65
1.84 1.82 1.84 1.83 1.70 1.76 1.70 1.62 1.46 1.35 1.28 1.27 1.25 1.41 1.45 1.44 1.51 1.56 1.63 1.67 1.78 1.80 1.83 1.75 1.59 1.56 1.50 1.42 1.37 1.34 1.33 1.33 1.33 1.29 1.33 1.54 1.52 1.45 1.43 1.47 1.50 1.55 1.61
1.84 1.80 1.76 1.75 1.72 1.72 1.67 1.57 1.38 1.28 1.32 1.22 1.21 1.33 1.37 1.38 1.40 1.44 1.48 1.53 1.59 1.67 1.75 1.79 1.75 1.70 1.67 1.63 1.60 1.52 1.47 1.45 1.43 1.47 1.46 1.49 1.56 1.60 1.61 1.59 1.57 1.58 1.58
1.86 1.84 1.79 1.77 1.76 1.68 1.66 1.60 1.40 1.33 1.32 1.21 1.17 1.19 1.26 1.32 1.35 1.34 1.37 1.39 1.41 1.48 1.56 1.63 1.65 1.64 1.62 1.65 1.64 1.61 1.58 1.60 1.57 1.57 1.60 1.62 1.60 1.57 1.52 1.51 1.54 1.57 1.57
1.79 1.87 1.81 1.80 1.79 1.62 1.60 1.57 1.32 1.30 1.30 1.26 1.17 1.15 1.16 1.23 1.30 1.27 1.23 1.25 1.25 1.29 1.36 1.45 1.54 1.54 1.48 1.50 1.50 1.49 1.52 1.61 1.60 1.57 1.55 1.54 1.53 1.54 1.48 1.45 1.41 1.40 1.37
1.71 1.74 1.72 1.74 1.74 1.57 1.53 1.51 1.35 1.24 1.21 1.24 1.11 1.06 1.04 1.13 1.20 1.22 1.24 1.21 1.21 1.22 1.21 1.23 1.27 1.39 1.41 1.35 1.31 1.23 1.21 1.30 1.34 1.34 1.34 1.36 1.36 1.34 1.33 1.30 1.28 1.25 1.16
1.66 1.74 1.69 1.72 1.66 1.61 1.53 1.49 1.42 1.25 1.26 1.25 1.07 1.07 0.94 1.07 1.22 1.30 1.31 1.29 1.29 1.31 1.27 1.32 1.29 1.24 1.20 1.14 1.09 1.05 1.07 1.10 1.13 1.15 1.17 1.20 1.20 1.20 1.18 1.17 1.10 0.98 0.93
1.65 1.73 1.73 1.69 1.58 1.68 1.55 1.48 1.40 1.27 1.17 1.27 1.25 1.12 0.96 0.94 1.10 1.26 1.28 1.31 1.33 1.33 1.34 1.35 1.31 1.25 1.26 1.29 1.19 1.09 1.03 1.01 1.02 1.05 1.05 1.05 1.03 1.02 0.99 0.95 0.89 0.92 0.97
1.61 1.68 1.72 1.72 1.66 1.60 1.58 1.52 1.44 1.30 1.28 1.20 1.27 1.26 1.23 1.20 1.00 0.97 1.18 1.23 1.27 1.27 1.30 1.32 1.31 1.32 1.33 1.29 1.28 1.16 1.04 0.97 0.97 1.03 1.04 1.01 1.00 0.98 0.94 0.92 0.95 0.99 1.05
1.54 1.60 1.62 1.64 1.65 1.63 1.62 1.57 1.53 1.42 1.36 1.28 1.26 1.26 1.28 1.23 1.20 1.07 0.98 1.08 1.17 1.20 1.24 1.28 1.29 1.31 1.36 1.35 1.34 1.31 1.17 1.12 1.04 1.06 1.08 1.08 1.07 1.06 1.10 1.13 1.17 1.22 1.23
1.39 1.48 1.52 1.55 1.59 1.59 1.56 1.56 1.65 1.53 1.44 1.38 1.31 1.30 1.27 1.21 1.16 1.12 1.03 1.07 1.06 1.13 1.23 1.28 1.28 1.31 1.38 1.39 1.34 1.31 1.30 1.22 1.18 1.09 1.12 1.13 1.17 1.21 1.24 1.29 1.29 1.32 1.37
1.22 1.28 1.40 1.43 1.49 1.54 1.54 1.57 1.60 1.62 1.52 1.41 1.37 1.24 1.26 1.25 1.26 1.23 1.14 1.10 1.07 1.18 1.20 1.30 1.33 1.36 1.34 1.35 1.33 1.34 1.34 1.30 1.23 1.20 1.14 1.14 1.21 1.25 1.30 1.33 1.34 1.37 1.41
1.16 1.23 1.21 1.32 1.41 1.49 1.50 1.52 1.55 1.59 1.60 1.53 1.42 1.39 1.35 1.34 1.28 1.23 1.19 1.13 1.05 1.14 1.19 1.21 1.39 1.39 1.39 1.37 1.36 1.35 1.35 1.34 1.32 1.27 1.25 1.24 1.20 1.23 1.28 1.32 1.36 1.38 1.40
1.18 1.17 1.17 1.25 1.33 1.41 1.47 1.49 1.45 1.52 1.56 1.53 1.52 1.49 1.44 1.45 1.42 1.35 1.32 1.25 1.13 0.99 1.01 1.13 1.12 1.30 1.33 1.37 1.40 1.43 1.43 1.42 1.40 1.41 1.38 1.34 1.33 1.29 1.26 1.28 1.31 1.33 1.34
1.22 1.12 1.16 1.24 1.32 1.35 1.42 1.46 1.45 1.49 1.53 1.54 1.49 1.47 1.42 1.41 1.42 1.41 1.36 1.31 1.27 1.15 0.97 1.14 1.15 1.22 1.27 1.25 1.29 1.32 1.37 1.42 1.43 1.45 1.46 1.46 1.43 1.39 1.35 1.28 1.26 1.29 1.30
1.23 1.18 1.15 1.17 1.25 1.26 1.31 1.36 1.40 1.44 1.44 1.46 1.49 1.44 1.40 1.50 1.42 1.39 1.36 1.33 1.25 1.21 1.01 1.05 1.18 1.18 1.19 1.20 1.24 1.30 1.33 1.34 1.37 1.40 1.42 1.41 1.44 1.42 1.44 1.44 1.39 1.34 1.30
1.27 1.23 1.22 1.13 1.20 1.22 1.26 1.26 1.29 1.36 1.38 1.35 1.36 1.39 1.36 1.39 1.36 1.42 1.40 1.28 1.21 1.23 1.10 0.96 1.06 1.09 1.11 1.17 1.21 1.22 1.27 1.31 1.33 1.34 1.32 1.33 1.37 1.40 1.41 1.41 1.45 1.46 1.41
1.24 1.22 1.20 1.10 1.11 1.16 1.21 1.25 1.24 1.26 1.33 1.35 1.36 1.36 1.36 1.39 1.32 1.31 1.31 1.27 1.28 1.28 1.24 1.10 1.03 1.17 1.17 1.21 1.18 1.22 1.24 1.25 1.30 1.31 1.35 1.35 1.35 1.36 1.38 1.43 1.44 1.46 1.49
1.23 1.17 1.13 1.11 1.10 1.10 1.13 1.15 1.21 1.22 1.22 1.28 1.33 1.36 1.36 1.36 1.32 1.32 1.30 1.28 1.28 1.23 1.21 1.14 1.07 1.10 1.14 1.20 1.19 1.07 1.08 1.21 1.20 1.31 1.33 1.32 1.32 1.33 1.36 1.39 1.41 1.44 1.46
1.21 1.19 1.14 1.11 1.12 1.08 1.04 1.02 1.09 1.14 1.15 1.17 1.21 1.23 1.25 1.28 1.30 1.30 1.28 1.26 1.29 1.25 1.21 1.15 1.11 1.16 1.20 1.26 1.27 1.38 1.36 1.47 1.52 1.63 1.58 1.61 1.63 1.60 1.55 1.47 1.42 1.39 1.39
1.17 1.20 1.17 1.15 1.09 1.05 1.00 0.98 1.00 1.03 1.11 1.13 1.10 1.15 1.22 1.21 1.19 1.20 1.25 1.30 1.37 1.30 1.26 1.30 1.32 1.34 1.45 1.57 1.67 1.65 1.61 1.51 1.37 1.84 1.63 1.56 1.71 1.61 1.68 1.76 1.78 1.73 1.54
1.16 1.14 1.17 1.17 1.11 1.09 1.04 0.99 1.01 1.07 1.07 1.09 1.10 1.11 1.14 1.23 1.26 1.29 1.35 1.39 1.48 1.59 1.66 1.65 1.51 1.57 1.57 1.72 1.76 1.70 1.72 1.66 1.56 1.80 1.80 1.45 1.70 1.55 1.70 1.76 1.78 1.84 1.93
1.13 1.13 1.16 1.16 1.13 1.13 1.12 1.08 1.08 1.11 1.12 1.13 1.14 1.15 1.18 1.21 1.30 1.34 1.36 1.40 1.46 1.52 1.59 1.59 1.59 1.67 1.81 1.95 2.00 2.00 1.94 1.86 1.75 1.76 1.83 1.34 1.61 1.56 1.73 1.73 1.68 1.72 1.78
1.12 1.12 1.16 1.16 1.10 1.09 1.11 1.06 1.08 1.12 1.11 1.12 1.22 1.27 1.29 1.29 1.36 1.39 1.36 1.35 1.42 1.54 1.78 1.85 1.94 1.99 2.03 2.07 2.11 2.03 1.80 1.67 1.45 1.41 1.72 1.56 1.49 1.51 1.56 1.55 1.62 1.57 1.58
1.09 1.15 1.14 1.18 1.19 1.14 1.18 1.12 1.13 1.17 1.16 1.21 1.35 1.41 1.45 1.47 1.53 1.58 1.56 1.58 1.55 1.70 1.86 1.92 1.98 2.00 2.05 2.12 2.20 2.10 1.93 1.67 1.54 1.36 1.62 1.58 1.55 1.52 1.23 1.41 1.48 1.51 1.52

GFSMA_prec_pwat_048.txt.gz
Precipitable_Water
1.76 1.81 1.74 1.76 1.79 1.78 1.65 1.56 1.47 1.42 1.37 1.36 1.55 1.67 1.66 1.54 1.65 1.75 1.88 1.74 1.62 1.51 1.50 1.58 1.57 1.41 1.38 1.48 1.55 1.47 1.48 1.45 1.43 1.54 1.54 1.53 1.48 1.46 1.43 1.46 1.55 1.65 1.64
1.92 1.88 1.79 1.78 1.81 1.80 1.74 1.61 1.45 1.37 1.32 1.36 1.43 1.55 1.61 1.60 1.63 1.68 1.84 1.78 1.75 1.68 1.58 1.50 1.51 1.41 1.39 1.36 1.36 1.41 1.46 1.45 1.43 1.39 1.43 1.50 1.47 1.53 1.51 1.45 1.48 1.60 1.63
1.98 1.90 1.92 1.77 1.80 1.76 1.67 1.54 1.45 1.33 1.34 1.34 1.39 1.46 1.51 1.61 1.61 1.67 1.75 1.79 1.80 1.70 1.74 1.69 1.58 1.52 1.47 1.42 1.40 1.37 1.36 1.35 1.38 1.36 1.36 1.49 1.61 1.60 1.57 1.60 1.59 1.59 1.60
1.97 1.91 1.82 1.73 1.80 1.73 1.66 1.50 1.38 1.37 1.25 1.22 1.39 1.41 1.39 1.45 1.48 1.54 1.63 1.69 1.67 1.82 1.73 1.71 1.71 1.66 1.63 1.65 1.64 1.56 1.52 1.48 1.47 1.50 1.54 1.57 1.54 1.52 1.57 1.54 1.53 1.56 1.58
1.89 1.89 1.85 1.94 1.79 1.71 1.67 1.51 1.39 1.36 1.26 1.18 1.18 1.25 1.30 1.35 1.34 1.39 1.44 1.44 1.45 1.54 1.62 1.58 1.60 1.59 1.60 1.62 1.60 1.60 1.58 1.60 1.64 1.59 1.60 1.58 1.54 1.54 1.50 1.47 1.45 1.42 1.42
1.81 1.91 2.02 1.91 1.84 1.66 1.61 1.54 1.35 1.32 1.37 1.24 1.15 1.12 1.24 1.29 1.32 1.31 1.32 1.34 1.25 1.34 1.41 1.51 1.61 1.62 1.41 1.43 1.46 1.42 1.41 1.44 1.49 1.46 1.42 1.42 1.42 1.43 1.38 1.36 1.31 1.32 1.25
1.69 1.80 1.90 1.86 1.76 1.65 1.57 1.49 1.31 1.26 1.24 1.26 1.12 1.01 1.03 1.15 1.26 1.27 1.29 1.25 1.24 1.28 1.26 1.27 1.32 1.43 1.48 1.29 1.20 1.10 1.09 1.19 1.23 1.20 1.19 1.19 1.24 1.25 1.25 1.22 1.20 1.16 1.03
1.72 1.78 1.78 1.72 1.81 1.74 1.59 1.56 1.41 1.26 1.21 1.20 1.15 1.06 0.96 1.10 1.22 1.32 1.32 1.32 1.31 1.33 1.32 1.33 1.22 1.24 1.22 1.21 1.13 0.97 1.00 1.02 1.02 1.02 1.05 1.08 1.10 1.10 1.10 1.07 1.01 0.92 0.93
1.71 1.76 1.72 1.82 1.72 1.73 1.56 1.51 1.47 1.35 1.24 1.28 1.30 1.26 1.02 1.04 1.16 1.25 1.29 1.32 1.30 1.32 1.32 1.33 1.32 1.27 1.30 1.32 1.22 1.16 0.98 0.98 1.03 1.08 1.07 1.08 1.05 1.08 1.13 1.10 1.04 1.06 1.09
1.65 1.72 1.86 1.77 1.70 1.82 1.62 1.54 1.51 1.40 1.39 1.22 1.26 1.28 1.30 1.25 1.13 1.09 1.18 1.23 1.27 1.26 1.28 1.35 1.34 1.37 1.35 1.34 1.32 1.21 1.11 1.03 1.05 1.08 1.10 1.08 1.11 1.16 1.17 1.11 1.15 1.21 1.27
1.57 1.67 1.89 1.73 1.72 1.65 1.66 1.73 1.56 1.42 1.34 1.34 1.28 1.26 1.27 1.30 1.25 1.18 1.05 1.12 1.19 1.21 1.28 1.34 1.35 1.36 1.40 1.39 1.44 1.43 1.28 1.17 1.10 1.09 1.14 1.14 1.13 1.16 1.17 1.19 1.22 1.27 1.32
1.47 1.56 1.67 1.72 1.64 1.58 1.63 1.74 1.69 1.54 1.47 1.38 1.33 1.32 1.30 1.33 1.22 1.18 1.09 1.11 1.10 1.20 1.27 1.33 1.32 1.33 1.36 1.39 1.38 1.34 1.30 1.23 1.18 1.13 1.14 1.18 1.21 1.22 1.24 1.27 1.28 1.30 1.34
1.32 1.42 1.50 1.55 1.56 1.58 1.62 1.74 1.71 1.70 1.52 1.42 1.37 1.29 1.29 1.26 1.26 1.22 1.18 1.13 1.10 1.20 1.27 1.37 1.38 1.39 1.36 1.36 1.40 1.38 1.35 1.31 1.28 1.26 1.24 1.17 1.17 1.22 1.27 1.29 1.31 1.33 1.34
1.28 1.36 1.43 1.44 1.48 1.56 1.57 1.61 1.68 1.69 1.65 1.51 1.45 1.42 1.37 1.33 1.31 1.22 1.17 1.16 1.07 1.19 1.25 1.21 1.39 1.36 1.39 1.41 1.44 1.44 1.42 1.41 1.38 1.39 1.37 1.34 1.32 1.26 1.24 1.24 1.28 1.31 1.33
1.32 1.30 1.30 1.33 1.35 1.43 1.51 1.54 1.54 1.60 1.62 1.58 1.57 1.52 1.43 1.41 1.44 1.39 1.34 1.26 1.13 1.03 1.07 1.23 1.12 1.31 1.28 1.33 1.37 1.40 1.43 1.46 1.45 1.43 1.39 1.37 1.36 1.37 1.37 1.34 1.33 1.32 1.32
1.31 1.24 1.23 1.22 1.26 1.35 1.41 1.46 1.49 1.55 1.58 1.61 1.53 1.50 1.47 1.42 1.44 1.43 1.38 1.31 1.25 1.13 0.99 1.16 1.20 1.26 1.29 1.29 1.31 1.31 1.34 1.39 1.40 1.38 1.39 1.38 1.37 1.36 1.36 1.38 1.39 1.39 1.40
1.30 1.23 1.18 1.15 1.22 1.32 1.37 1.39 1.41 1.49 1.49 1.52 1.56 1.49 1.46 1.52 1.43 1.41 1.39 1.33 1.27 1.22 1.03 1.08 1.17 1.22 1.23 1.23 1.25 1.34 1.35 1.34 1.35 1.36 1.36 1.37 1.36 1.36 1.36 1.37 1.38 1.40 1.42
1.31 1.25 1.25 1.19 1.16 1.22 1.34 1.34 1.34 1.39 1.42 1.41 1.45 1.46 1.42 1.47 1.42 1.40 1.38 1.33 1.25 1.24 1.13 1.02 1.15 1.15 1.19 1.27 1.29 1.30 1.37 1.38 1.35 1.35 1.36 1.33 1.35 1.35 1.34 1.34 1.35 1.34 1.34
1.30 1.27 1.28 1.24 1.17 1.14 1.23 1.28 1.29 1.31 1.38 1.42 1.43 1.40 1.38 1.42 1.37 1.37 1.38 1.35 1.39 1.42 1.38 1.26 1.18 1.28 1.27 1.33 1.32 1.36 1.38 1.36 1.41 1.41 1.39 1.39 1.39 1.39 1.39 1.39 1.38 1.38 1.37
1.30 1.26 1.27 1.28 1.23 1.14 1.16 1.25 1.26 1.25 1.28 1.34 1.40 1.41 1.41 1.39 1.37 1.38 1.39 1.39 1.39 1.33 1.30 1.24 1.19 1.17 1.21 1.27 1.31 1.27 1.34 1.57 1.60 1.77 1.80 1.79 1.76 1.70 1.67 1.65 1.59 1.52 1.50
1.28 1.27 1.26 1.27 1.26 1.20 1.13 1.12 1.16 1.16 1.21 1.21 1.29 1.35 1.37 1.41 1.43 1.42 1.39 1.39 1.39 1.34 1.27 1.20 1.20 1.29 1.35 1.42 1.48 1.63 1.64 1.69 1.72 1.82 1.75 1.83 1.83 1.79 1.74 1.62 1.62 1.72 1.73
1.27 1.28 1.23 1.20 1.19 1.18 1.11 1.04 1.05 1.06 1.12 1.15 1.15 1.20 1.23 1.25 1.23 1.23 1.25 1.27 1.30 1.23 1.22 1.24 1.25 1.31 1.45 1.61 1.71 1.66 1.60 1.57 1.47 2.08 1.96 1.80 1.89 1.74 1.79 1.81 1.75 1.69 1.64
1.26 1.25 1.23 1.20 1.14 1.16 1.08 1.01 0.99 1.01 1.02 1.06 1.12 1.14 1.14 1.19 1.23 1.25 1.27 1.26 1.26 1.30 1.40 1.42 1.40 1.49 1.51 1.61 1.65 1.64 1.68 1.79 1.83 1.96 1.87 1.57 1.75 1.59 1.70 1.70 1.72 1.68 1.61
1.27 1.23 1.20 1.19 1.17 1.15 1.11 1.06 1.02 1.05 1.06 1.10 1.15 1.17 1.15 1.14 1.22 1.29 1.34 1.34 1.39 1.46 1.53 1.54 1.53 1.56 1.62 1.73 1.86 1.94 1.93 1.88 1.87 1.92 1.96 1.36 1.54 1.46 1.62 1.66 1.70 1.74 1.68
1.27 1.21 1.18 1.16 1.14 1.11 1.10 1.05 1.09 1.12 1.10 1.09 1.14 1.17 1.21 1.20 1.23 1.25 1.24 1.21 1.27 1.35 1.52 1.56 1.61 1.69 1.84 1.95 2.02 1.96 1.84 1.79 1.56 1.67 1.86 1.66 1.52 1.46 1.44 1.47 1.52 1.52 1.58
1.20 1.18 1.14 1.20 1.17 1.12 1.16 1.08 1.11 1.13 1.09 1.09 1.15 1.20 1.21 1.21 1.25 1.29 1.25 1.25 1.21 1.35 1.54 1.68 1.86 1.97 2.05 2.07 2.10 2.12 2.07 1.85 1.76 1.51 1.73 1.54 1.40 1.41 1.11 1.22 1.29 1.36 1.39